ANZ282 NZAA-WSSS

Flight info

Callsign ANZ282
Flight time 10h 25m
Altitude 30000
Route MADEP N774 AKALU/N0488F320 N774 TESAT A576 PKS G222 AYE T29 SCHEE/N0487F340 T29 CIN A576 ATMAP M635 SURGA T23 UGEBO
Aircraft B77W/H-SDE1E2E3GHIJ3J4J5M1P2RWXYZ/LB1D1

Departure

Time 2026-05-04 12:08
Airport Auckland International Airport (NZAA)

Arrival

Time 2026-05-04 22:33
Airport Singapore Changi Airport (WSSS)
Time Latitude Longitude Altitude Speed Heading
2026-05-04 10:35 -37.00761 174.78273 30 ft 0 kts 298°
2026-05-04 11:57 -37.00765 174.78283 30 ft 4 kts 297°
2026-05-04 11:57 -37.00776 174.78313 29 ft 4 kts 288°
2026-05-04 11:58 -37.00782 174.78344 29 ft 4 kts 271°
2026-05-04 11:58 -37.00780 174.78370 27 ft 4 kts 237°
2026-05-04 11:58 -37.00771 174.78382 28 ft 3 kts 191°
2026-05-04 11:58 -37.00789 174.78379 28 ft 4 kts 188°
2026-05-04 11:59 -37.00815 174.78375 30 ft 4 kts 186°
2026-05-04 11:59 -37.00843 174.78372 30 ft 4 kts 185°
2026-05-04 11:59 -37.00868 174.78369 30 ft 2 kts 185°
2026-05-04 11:59 -37.00870 174.78369 30 ft 0 kts 185°
2026-05-04 12:02 -37.00884 174.78367 30 ft 8 kts 185°
2026-05-04 12:03 -37.00951 174.78364 30 ft 10 kts 175°
2026-05-04 12:03 -37.01018 174.78376 30 ft 10 kts 180°
2026-05-04 12:03 -37.01077 174.78337 30 ft 10 kts 227°
2026-05-04 12:03 -37.01113 174.78257 30 ft 11 kts 250°
2026-05-04 12:04 -37.01141 174.78157 30 ft 12 kts 250°
2026-05-04 12:04 -37.01171 174.78050 30 ft 14 kts 251°
2026-05-04 12:04 -37.01205 174.77928 30 ft 15 kts 251°
2026-05-04 12:04 -37.01238 174.77804 30 ft 15 kts 251°
2026-05-04 12:05 -37.01273 174.77680 30 ft 15 kts 251°
2026-05-04 12:05 -37.01307 174.77556 30 ft 15 kts 251°
2026-05-04 12:05 -37.01341 174.77432 30 ft 15 kts 251°
2026-05-04 12:05 -37.01375 174.77308 30 ft 15 kts 250°
2026-05-04 12:06 -37.01410 174.77185 30 ft 15 kts 250°
2026-05-04 12:06 -37.01485 174.77103 30 ft 15 kts 196°
2026-05-04 12:06 -37.01582 174.77084 30 ft 13 kts 170°
2026-05-04 12:06 -37.01603 174.77183 30 ft 13 kts 76°
2026-05-04 12:07 -37.01554 174.77359 30 ft 39 kts 70°
2026-05-04 12:07 -37.01386 174.77977 30 ft 111 kts 71°
2026-05-04 12:07 -37.01061 174.79147 30 ft 172 kts 71°
2026-05-04 12:07 -37.00622 174.80726 235 ft 197 kts 72°
2026-05-04 12:08 -37.00182 174.82362 863 ft 201 kts 72°
2026-05-04 12:08 -36.99733 174.84034 1550 ft 202 kts 71°
2026-05-04 12:08 -36.99273 174.85692 2171 ft 206 kts 70°
2026-05-04 12:08 -36.98778 174.87445 2531 ft 220 kts 69°
2026-05-04 12:09 -36.98256 174.89301 2938 ft 234 kts 69°
2026-05-04 12:09 -36.97698 174.91256 3453 ft 244 kts 68°
2026-05-04 12:09 -36.97119 174.93286 4056 ft 250 kts 68°
2026-05-04 12:09 -36.96537 174.95345 4760 ft 253 kts 69°
2026-05-04 12:10 -36.95916 174.97409 5452 ft 253 kts 60°
2026-05-04 12:10 -36.95215 174.98603 5796 ft 256 kts 41°
2026-05-04 12:10 -36.93674 174.99725 6431 ft 260 kts 17°
2026-05-04 12:10 -36.91863 175.00000 7051 ft 267 kts 358°
2026-05-04 12:11 -36.90067 174.99371 7587 ft 276 kts 329°
2026-05-04 12:11 -36.88581 174.97814 8095 ft 282 kts 320°
2026-05-04 12:11 -36.87125 174.96149 8663 ft 286 kts 321°
2026-05-04 12:11 -36.85656 174.94464 9313 ft 286 kts 315°
2026-05-04 12:12 -36.84691 174.92270 9753 ft 298 kts 283°
2026-05-04 12:12 -36.84440 174.89684 10250 ft 303 kts 277°
2026-05-04 12:12 -36.84241 174.86986 10459 ft 322 kts 277°
2026-05-04 12:12 -36.84027 174.84154 10618 ft 342 kts 277°
2026-05-04 12:13 -36.83785 174.81100 10780 ft 363 kts 277°
2026-05-04 12:14 -36.81652 174.57611 15405 ft 402 kts 278°
2026-05-04 12:15 -36.81317 174.54123 16130 ft 405 kts 278°
2026-05-04 12:15 -36.80980 174.50628 16847 ft 408 kts 278°
2026-05-04 12:15 -36.80638 174.47088 17553 ft 411 kts 278°
2026-05-04 12:15 -36.80292 174.43527 18260 ft 414 kts 278°
2026-05-04 12:16 -36.79947 174.39985 18934 ft 418 kts 278°
2026-05-04 12:16 -36.79589 174.36317 19553 ft 421 kts 278°
2026-05-04 12:16 -36.79232 174.32674 20122 ft 425 kts 278°
2026-05-04 12:16 -36.78876 174.29044 20689 ft 428 kts 278°
2026-05-04 12:17 -36.78511 174.25340 21254 ft 432 kts 278°
2026-05-04 12:17 -36.78137 174.21557 21814 ft 436 kts 278°
2026-05-04 12:17 -36.77763 174.17789 22371 ft 440 kts 278°
2026-05-04 12:17 -36.77385 174.13987 22916 ft 443 kts 278°
2026-05-04 12:18 -36.77002 174.10158 23450 ft 447 kts 278°
2026-05-04 12:18 -36.76615 174.06294 23973 ft 451 kts 278°
2026-05-04 12:18 -36.76223 174.02393 24426 ft 454 kts 278°
2026-05-04 12:18 -36.75829 173.98481 24943 ft 455 kts 279°
2026-05-04 12:19 -36.75433 173.94561 25473 ft 455 kts 279°
2026-05-04 12:19 -36.75036 173.90647 25973 ft 456 kts 279°
2026-05-04 12:19 -36.74641 173.86702 26420 ft 458 kts 279°
2026-05-04 12:19 -36.74253 173.82745 26875 ft 460 kts 279°
2026-05-04 12:20 -36.73862 173.78777 27306 ft 462 kts 279°
2026-05-04 12:20 -36.73468 173.74842 27731 ft 464 kts 279°
2026-05-04 12:20 -36.73061 173.70842 28155 ft 465 kts 279°
2026-05-04 12:20 -36.72648 173.66833 28559 ft 467 kts 279°
2026-05-04 12:21 -36.72225 173.62760 28966 ft 469 kts 279°
2026-05-04 12:21 -36.71808 173.58771 29297 ft 471 kts 279°
2026-05-04 12:21 -36.71382 173.54714 29635 ft 473 kts 279°
2026-05-04 12:21 -36.70947 173.50591 29974 ft 475 kts 279°
2026-05-04 12:22 -36.70516 173.46504 30417 ft 474 kts 279°
2026-05-04 12:22 -36.70091 173.42483 30855 ft 472 kts 279°
2026-05-04 12:22 -36.69660 173.38424 31190 ft 472 kts 279°
2026-05-04 12:22 -36.69227 173.34364 31467 ft 473 kts 279°
2026-05-04 12:23 -36.68792 173.30296 31753 ft 474 kts 279°
2026-05-04 12:23 -36.68356 173.26232 32086 ft 473 kts 279°
2026-05-04 12:23 -36.67919 173.22168 32447 ft 472 kts 279°
2026-05-04 12:23 -36.67479 173.18098 32484 ft 476 kts 279°
2026-05-04 12:24 -36.66586 173.09874 32516 ft 481 kts 279°
2026-05-04 12:24 -36.65689 173.01657 32514 ft 477 kts 279°
2026-05-04 12:25 -36.64789 172.93472 32517 ft 476 kts 279°
2026-05-04 12:25 -36.63891 172.85350 32511 ft 471 kts 278°
2026-05-04 12:26 -36.62996 172.77313 32508 ft 466 kts 278°
2026-05-04 12:26 -36.62093 172.69265 32514 ft 471 kts 278°
2026-05-04 12:27 -36.61187 172.61226 32509 ft 468 kts 278°
2026-05-04 12:27 -36.60274 172.53177 32505 ft 469 kts 278°
2026-05-04 12:28 -36.59358 172.45155 32522 ft 475 kts 278°
2026-05-04 12:28 -36.58416 172.36951 32520 ft 482 kts 278°
2026-05-04 12:29 -36.57459 172.28673 32513 ft 484 kts 278°
2026-05-04 12:29 -36.56499 172.20418 32492 ft 479 kts 278°
2026-05-04 12:30 -36.55546 172.12271 32499 ft 474 kts 278°
2026-05-04 12:30 -36.54592 172.04171 32499 ft 472 kts 278°
2026-05-04 12:31 -36.53629 171.96032 32515 ft 474 kts 278°
2026-05-04 12:31 -36.52661 171.87910 32506 ft 475 kts 278°
2026-05-04 12:32 -36.51189 171.75644 32509 ft 481 kts 278°
2026-05-04 12:33 -36.50193 171.67402 32506 ft 483 kts 278°
2026-05-04 12:33 -36.49188 171.59141 32501 ft 484 kts 278°
2026-05-04 12:34 -36.48177 171.50884 32498 ft 482 kts 278°
2026-05-04 12:34 -36.47172 171.42708 32491 ft 480 kts 277°
2026-05-04 12:35 -36.46157 171.34514 32496 ft 479 kts 277°
2026-05-04 12:35 -36.45140 171.26344 32498 ft 478 kts 277°
2026-05-04 12:36 -36.44118 171.18185 32500 ft 478 kts 277°
2026-05-04 12:36 -36.43097 171.10077 32494 ft 478 kts 277°
2026-05-04 12:37 -36.42065 171.01922 32497 ft 479 kts 277°
2026-05-04 12:37 -36.41023 170.93745 32495 ft 480 kts 277°
2026-05-04 12:38 -36.39975 170.85548 32491 ft 481 kts 277°
2026-05-04 12:38 -36.38919 170.77344 32491 ft 481 kts 277°
2026-05-04 12:39 -36.38124 170.69063 32502 ft 479 kts 272°
2026-05-04 12:39 -36.37631 170.60847 32486 ft 479 kts 272°
2026-05-04 12:40 -36.37136 170.52590 32489 ft 479 kts 272°
2026-05-04 12:40 -36.36618 170.44340 32491 ft 479 kts 273°
2026-05-04 12:41 -36.36085 170.36096 32488 ft 479 kts 273°
2026-05-04 12:41 -36.35544 170.27847 32484 ft 479 kts 273°
2026-05-04 12:42 -36.34998 170.19611 32491 ft 479 kts 273°
2026-05-04 12:42 -36.34447 170.11370 32485 ft 479 kts 273°
2026-05-04 12:43 -36.33894 170.03198 32493 ft 478 kts 273°
2026-05-04 12:43 -36.33335 169.94981 32486 ft 478 kts 273°
2026-05-04 12:44 -36.32768 169.86764 32479 ft 478 kts 273°
2026-05-04 12:44 -36.32195 169.78542 32483 ft 478 kts 273°
2026-05-04 12:45 -36.31617 169.70319 32481 ft 478 kts 273°
2026-05-04 12:45 -36.31033 169.62103 32482 ft 478 kts 273°
2026-05-04 12:46 -36.30540 169.55220 32479 ft 478 kts 273°
2026-05-04 12:46 -36.29949 169.47048 32479 ft 478 kts 273°
2026-05-04 12:47 -36.29350 169.38830 32477 ft 478 kts 273°
2026-05-04 12:47 -36.28744 169.30612 32476 ft 478 kts 273°
2026-05-04 12:48 -36.28133 169.22402 32475 ft 478 kts 273°
2026-05-04 12:48 -36.27517 169.14198 32471 ft 478 kts 273°
2026-05-04 12:49 -36.26896 169.06004 32473 ft 478 kts 273°
2026-05-04 12:49 -36.26268 168.97796 32472 ft 477 kts 273°
2026-05-04 12:50 -36.25637 168.89607 32472 ft 477 kts 273°
2026-05-04 12:50 -36.24999 168.81420 32472 ft 477 kts 273°
2026-05-04 12:51 -36.24365 168.73355 32465 ft 477 kts 273°
2026-05-04 12:51 -36.23721 168.65227 32467 ft 477 kts 273°
2026-05-04 12:52 -36.23069 168.57058 32461 ft 476 kts 273°
2026-05-04 12:52 -36.22410 168.48889 32462 ft 476 kts 274°
2026-05-04 12:53 -36.21747 168.40738 32461 ft 476 kts 274°
2026-05-04 12:53 -36.21079 168.32588 32455 ft 475 kts 274°
2026-05-04 12:54 -36.20406 168.24451 32458 ft 474 kts 274°
2026-05-04 12:54 -36.19728 168.16320 32458 ft 474 kts 274°
2026-05-04 12:55 -36.19046 168.08211 32454 ft 473 kts 274°
2026-05-04 12:55 -36.18359 168.00104 32454 ft 473 kts 274°
2026-05-04 12:56 -36.17668 167.92015 32454 ft 472 kts 274°
2026-05-04 12:56 -36.16972 167.83940 32450 ft 472 kts 274°
2026-05-04 12:57 -36.16272 167.75876 32445 ft 471 kts 274°
2026-05-04 12:57 -36.15566 167.67808 32442 ft 471 kts 274°
2026-05-04 12:58 -36.14855 167.59751 32446 ft 471 kts 274°
2026-05-04 12:58 -36.14139 167.51698 32444 ft 471 kts 274°
2026-05-04 12:59 -36.13422 167.43689 32441 ft 470 kts 274°
2026-05-04 12:59 -36.12696 167.35644 32441 ft 470 kts 274°
2026-05-04 13:00 -36.11964 167.27595 32441 ft 470 kts 275°
2026-05-04 13:00 -36.11229 167.19571 32435 ft 470 kts 275°
2026-05-04 13:01 -36.10488 167.11543 32433 ft 470 kts 275°
2026-05-04 13:01 -36.09742 167.03522 32431 ft 469 kts 275°
2026-05-04 13:02 -36.08990 166.95498 32429 ft 469 kts 275°
2026-05-04 13:02 -36.08235 166.87496 32426 ft 469 kts 275°
2026-05-04 13:03 -36.07475 166.79495 32425 ft 468 kts 275°
2026-05-04 13:03 -36.06709 166.71497 32425 ft 468 kts 275°
2026-05-04 13:04 -36.05938 166.63502 32423 ft 468 kts 275°
2026-05-04 13:04 -36.05164 166.55528 32420 ft 467 kts 275°
2026-05-04 13:05 -36.04385 166.47560 32414 ft 467 kts 275°
2026-05-04 13:05 -36.03600 166.39586 32418 ft 467 kts 275°
2026-05-04 13:06 -36.02811 166.31636 32418 ft 466 kts 275°
2026-05-04 13:06 -36.02018 166.23683 32415 ft 466 kts 276°
2026-05-04 13:07 -36.01220 166.15746 32409 ft 466 kts 276°
2026-05-04 13:07 -36.00416 166.07801 32410 ft 466 kts 276°
2026-05-04 13:08 -35.99608 165.99862 32411 ft 466 kts 276°
2026-05-04 13:08 -35.98800 165.91979 32409 ft 466 kts 276°
2026-05-04 13:09 -35.97979 165.84032 32407 ft 466 kts 276°
2026-05-04 13:09 -35.97155 165.76102 32406 ft 465 kts 276°
2026-05-04 13:10 -35.96325 165.68166 32398 ft 465 kts 276°
2026-05-04 13:10 -35.95493 165.60254 32400 ft 465 kts 276°
2026-05-04 13:11 -35.94655 165.52351 32395 ft 464 kts 276°
2026-05-04 13:11 -35.93814 165.44453 32394 ft 463 kts 276°
2026-05-04 13:12 -35.92969 165.36576 32390 ft 463 kts 276°
2026-05-04 13:12 -35.92120 165.28712 32386 ft 462 kts 276°
2026-05-04 13:13 -35.91266 165.20853 32386 ft 462 kts 276°
2026-05-04 13:13 -35.90409 165.13009 32384 ft 461 kts 277°
2026-05-04 13:14 -35.89546 165.05173 32385 ft 461 kts 277°
2026-05-04 13:14 -35.88680 164.97343 32379 ft 460 kts 277°
2026-05-04 13:15 -35.87810 164.89523 32377 ft 460 kts 277°
2026-05-04 13:15 -35.86934 164.81707 32373 ft 460 kts 277°
2026-05-04 13:16 -35.86052 164.73877 32373 ft 460 kts 277°
2026-05-04 13:16 -35.85166 164.66060 32381 ft 460 kts 277°
2026-05-04 13:17 -35.84274 164.58239 32365 ft 460 kts 277°
2026-05-04 13:17 -35.83379 164.50431 32364 ft 460 kts 277°
2026-05-04 13:18 -35.82479 164.42630 32375 ft 460 kts 277°
2026-05-04 13:18 -35.81575 164.34840 32364 ft 459 kts 277°
2026-05-04 13:19 -35.80667 164.27060 32368 ft 458 kts 277°
2026-05-04 13:19 -35.79754 164.19290 32353 ft 457 kts 277°
2026-05-04 13:20 -35.78847 164.11605 32358 ft 455 kts 277°
2026-05-04 13:20 -35.77934 164.03915 32353 ft 452 kts 277°
2026-05-04 13:21 -35.77170 163.97513 32353 ft 450 kts 276°
2026-05-04 13:21 -35.76259 163.89914 32345 ft 446 kts 276°
2026-05-04 13:22 -35.75350 163.82376 32347 ft 443 kts 276°
2026-05-04 13:22 -35.74441 163.74883 32349 ft 441 kts 276°
2026-05-04 13:23 -35.73539 163.67478 32347 ft 439 kts 276°
2026-05-04 13:23 -35.72631 163.60066 32341 ft 437 kts 276°
2026-05-04 13:24 -35.71721 163.52678 32343 ft 436 kts 276°
2026-05-04 13:24 -35.70809 163.45308 32344 ft 435 kts 276°
2026-05-04 13:25 -35.69435 163.34278 32337 ft 434 kts 276°
2026-05-04 13:25 -35.68515 163.26935 32330 ft 434 kts 276°
2026-05-04 13:26 -35.67592 163.19608 32332 ft 433 kts 277°
2026-05-04 13:26 -35.66665 163.12289 32331 ft 433 kts 277°
2026-05-04 13:27 -35.65736 163.04974 32318 ft 432 kts 277°
2026-05-04 13:27 -35.64801 162.97670 32320 ft 432 kts 277°
2026-05-04 13:28 -35.63860 162.90385 32323 ft 431 kts 277°
2026-05-04 13:28 -35.62914 162.83093 32321 ft 431 kts 277°
2026-05-04 13:29 -35.61964 162.75797 32317 ft 431 kts 277°
2026-05-04 13:29 -35.61013 162.68523 32316 ft 431 kts 277°
2026-05-04 13:30 -35.60057 162.61247 32320 ft 431 kts 277°
2026-05-04 13:30 -35.59097 162.53977 32311 ft 431 kts 277°
2026-05-04 13:31 -35.58132 162.46710 32310 ft 431 kts 278°
2026-05-04 13:31 -35.57171 162.39495 32306 ft 431 kts 278°
2026-05-04 13:32 -35.56198 162.32238 32310 ft 431 kts 278°
2026-05-04 13:32 -35.55221 162.24972 32300 ft 431 kts 278°
2026-05-04 13:33 -35.54240 162.17716 32307 ft 431 kts 278°
2026-05-04 13:33 -35.53252 162.10447 32301 ft 431 kts 278°
2026-05-04 13:34 -35.52260 162.03173 32296 ft 432 kts 278°
2026-05-04 13:34 -35.51262 161.95897 32294 ft 432 kts 278°
2026-05-04 13:35 -35.49756 161.84973 32288 ft 433 kts 278°
2026-05-04 13:36 -35.48745 161.77685 32291 ft 433 kts 278°
2026-05-04 13:36 -35.47729 161.70391 32292 ft 434 kts 279°
2026-05-04 13:37 -35.46705 161.63080 32279 ft 434 kts 279°
2026-05-04 13:37 -35.45679 161.55784 32282 ft 434 kts 279°
2026-05-04 13:38 -35.44648 161.48485 32282 ft 435 kts 279°
2026-05-04 13:38 -35.43611 161.41171 32281 ft 435 kts 279°
2026-05-04 13:39 -35.42570 161.33867 32271 ft 435 kts 279°
2026-05-04 13:39 -35.41521 161.26544 32268 ft 436 kts 279°
2026-05-04 13:40 -35.40467 161.19213 32264 ft 437 kts 279°
2026-05-04 13:40 -35.39407 161.11872 32269 ft 438 kts 279°
2026-05-04 13:41 -35.38340 161.04523 32267 ft 438 kts 279°
2026-05-04 13:41 -35.37274 160.97205 32264 ft 439 kts 279°
2026-05-04 13:42 -35.35655 160.86154 32254 ft 439 kts 279°
2026-05-04 13:42 -35.34566 160.78770 32258 ft 440 kts 279°
2026-05-04 13:43 -35.33475 160.71393 32263 ft 440 kts 280°
2026-05-04 13:43 -35.32379 160.64021 32251 ft 440 kts 280°
2026-05-04 13:44 -35.31278 160.56646 32251 ft 440 kts 280°
2026-05-04 13:44 -35.30180 160.49325 32253 ft 440 kts 280°
2026-05-04 13:45 -35.29071 160.41959 32254 ft 440 kts 280°
2026-05-04 13:45 -35.27958 160.34599 32238 ft 440 kts 280°
2026-05-04 13:46 -35.26839 160.27228 32249 ft 440 kts 280°
2026-05-04 13:46 -35.25713 160.19851 32245 ft 440 kts 280°
2026-05-04 13:47 -35.24586 160.12491 32234 ft 440 kts 281°
2026-05-04 13:47 -35.23453 160.05123 32238 ft 441 kts 281°
2026-05-04 13:48 -35.22313 159.97745 32236 ft 441 kts 281°
2026-05-04 13:48 -35.21170 159.90379 32236 ft 441 kts 281°
2026-05-04 13:49 -35.20022 159.83006 32231 ft 441 kts 281°
2026-05-04 13:49 -35.18869 159.75634 32229 ft 441 kts 281°
2026-05-04 13:50 -35.17710 159.68257 32227 ft 442 kts 281°
2026-05-04 13:50 -35.16547 159.60886 32224 ft 442 kts 281°
2026-05-04 13:51 -35.15379 159.53508 32226 ft 442 kts 281°
2026-05-04 13:51 -35.14205 159.46130 32218 ft 442 kts 281°
2026-05-04 13:52 -35.12435 159.35056 32219 ft 442 kts 281°
2026-05-04 13:53 -35.11257 159.27724 32212 ft 443 kts 281°
2026-05-04 13:53 -35.10059 159.20298 32214 ft 443 kts 281°
2026-05-04 13:54 -35.08271 159.09271 32208 ft 443 kts 281°
2026-05-04 13:55 -35.06465 158.98196 32215 ft 443 kts 281°
2026-05-04 13:55 -35.04649 158.87132 32204 ft 443 kts 281°
2026-05-04 13:56 -35.03629 158.80945 32206 ft 443 kts 281°
2026-05-04 13:57 -35.01805 158.69931 32209 ft 443 kts 281°
2026-05-04 13:58 -34.99353 158.55225 32190 ft 442 kts 281°
2026-05-04 13:58 -34.97502 158.44200 32189 ft 442 kts 281°
2026-05-04 13:59 -34.96264 158.36860 32183 ft 442 kts 281°
2026-05-04 14:00 -34.94395 158.25839 32184 ft 442 kts 281°
2026-05-04 14:00 -34.92515 158.14816 32182 ft 443 kts 281°
2026-05-04 14:01 -34.91265 158.07515 32177 ft 443 kts 282°
2026-05-04 14:02 -34.89367 157.96489 32174 ft 443 kts 282°
2026-05-04 14:02 -34.88096 157.89143 32171 ft 443 kts 282°
2026-05-04 14:03 -34.86823 157.81813 32172 ft 442 kts 282°
2026-05-04 14:03 -34.85548 157.74498 32169 ft 441 kts 282°
2026-05-04 14:04 -34.83622 157.63495 32162 ft 440 kts 282°
2026-05-04 14:04 -34.82341 157.56213 32160 ft 439 kts 282°
2026-05-04 14:05 -34.80418 157.45334 32162 ft 437 kts 282°
2026-05-04 14:06 -34.79137 157.38114 32165 ft 436 kts 282°
2026-05-04 14:06 -34.77851 157.30900 32158 ft 436 kts 282°
2026-05-04 14:07 -34.76564 157.23699 32154 ft 435 kts 282°
2026-05-04 14:07 -34.75274 157.16512 32153 ft 435 kts 282°
2026-05-04 14:08 -34.73979 157.09323 32153 ft 435 kts 282°
2026-05-04 14:08 -34.72688 157.02180 32148 ft 435 kts 282°
2026-05-04 14:09 -34.70731 156.91398 32144 ft 435 kts 282°
2026-05-04 14:10 -34.68764 156.80623 32141 ft 435 kts 282°
2026-05-04 14:10 -34.67445 156.73427 32141 ft 435 kts 283°
2026-05-04 14:11 -34.66124 156.66248 32138 ft 435 kts 283°
2026-05-04 14:11 -34.64143 156.55527 32130 ft 435 kts 283°
2026-05-04 14:12 -34.62805 156.48317 32128 ft 435 kts 283°
2026-05-04 14:13 -34.60813 156.37627 32123 ft 434 kts 283°
2026-05-04 14:13 -34.59475 156.30481 32120 ft 434 kts 283°
2026-05-04 14:14 -34.58134 156.23340 32117 ft 434 kts 283°
2026-05-04 14:14 -34.56116 156.12641 32114 ft 433 kts 283°
2026-05-04 14:15 -34.53409 155.98379 32109 ft 433 kts 283°
2026-05-04 14:16 -34.51369 155.87689 32109 ft 433 kts 283°
2026-05-04 14:17 -34.49320 155.77011 32103 ft 433 kts 283°
2026-05-04 14:18 -34.47264 155.66348 32099 ft 433 kts 283°
2026-05-04 14:19 -34.44506 155.52126 32098 ft 433 kts 283°
2026-05-04 14:19 -34.43123 155.45028 32094 ft 433 kts 283°
2026-05-04 14:20 -34.41734 155.37922 32096 ft 433 kts 283°
2026-05-04 14:20 -34.40350 155.30863 32089 ft 433 kts 284°
2026-05-04 14:21 -34.38252 155.20205 32085 ft 433 kts 284°
2026-05-04 14:21 -34.37111 155.13033 32148 ft 436 kts 277°
2026-05-04 14:22 -34.36755 155.09386 32478 ft 435 kts 278°
2026-05-04 14:22 -34.36396 155.05767 32913 ft 432 kts 278°
2026-05-04 14:22 -34.36033 155.02169 33337 ft 429 kts 278°
2026-05-04 14:22 -34.35667 154.98593 33711 ft 427 kts 278°
2026-05-04 14:23 -34.34931 154.91477 34028 ft 430 kts 278°
2026-05-04 14:23 -34.34557 154.87893 34073 ft 429 kts 278°
2026-05-04 14:24 -34.33810 154.80757 34082 ft 426 kts 278°
2026-05-04 14:24 -34.33064 154.73669 34075 ft 423 kts 278°
2026-05-04 14:25 -34.32318 154.66619 34080 ft 422 kts 278°
2026-05-04 14:25 -34.31192 154.56052 34071 ft 422 kts 278°
2026-05-04 14:26 -34.30435 154.49001 34073 ft 423 kts 278°
2026-05-04 14:26 -34.29672 154.41933 34066 ft 424 kts 278°
2026-05-04 14:27 -34.28904 154.34851 34074 ft 425 kts 278°
2026-05-04 14:27 -34.28130 154.27749 34070 ft 426 kts 278°
2026-05-04 14:28 -34.27351 154.20647 34060 ft 426 kts 278°
2026-05-04 14:28 -34.26567 154.13540 34061 ft 427 kts 278°
2026-05-04 14:29 -34.24989 153.99337 34067 ft 428 kts 279°
2026-05-04 14:30 -34.24189 153.92191 34069 ft 429 kts 279°
2026-05-04 14:31 -34.22981 153.81445 34058 ft 431 kts 279°
2026-05-04 14:32 -34.21490 153.68256 34055 ft 431 kts 279°
2026-05-04 14:32 -34.20673 153.61080 34053 ft 431 kts 279°
2026-05-04 14:33 -34.19857 153.53948 34050 ft 431 kts 279°
2026-05-04 14:33 -34.19032 153.46785 34047 ft 430 kts 279°
2026-05-04 14:34 -34.18199 153.39583 34048 ft 430 kts 279°
2026-05-04 14:34 -34.17373 153.32481 34045 ft 429 kts 279°
2026-05-04 14:35 -34.16540 153.25356 34044 ft 428 kts 279°
2026-05-04 14:35 -34.15704 153.18243 34048 ft 427 kts 280°
2026-05-04 14:36 -34.14865 153.11137 34046 ft 427 kts 280°
2026-05-04 14:36 -34.14023 153.04043 34045 ft 427 kts 280°
2026-05-04 14:37 -34.13178 152.96951 34045 ft 426 kts 280°
2026-05-04 14:37 -34.12318 152.89870 34045 ft 426 kts 280°
2026-05-04 14:38 -34.11448 152.82795 34046 ft 426 kts 281°
2026-05-04 14:38 -34.10576 152.75732 34045 ft 426 kts 281°
2026-05-04 14:39 -34.09701 152.68659 34042 ft 425 kts 281°
2026-05-04 14:39 -34.08825 152.61609 34039 ft 425 kts 281°
2026-05-04 14:40 -34.07614 152.51029 34042 ft 424 kts 278°
2026-05-04 14:40 -34.06996 152.43959 34048 ft 423 kts 278°
2026-05-04 14:41 -34.06365 152.36910 34037 ft 422 kts 279°
2026-05-04 14:42 -34.05045 152.22867 34034 ft 420 kts 279°
2026-05-04 14:42 -34.04377 152.15859 34040 ft 420 kts 279°
2026-05-04 14:43 -34.03713 152.08912 34023 ft 419 kts 279°
2026-05-04 14:43 -34.03031 152.01936 34033 ft 419 kts 279°
2026-05-04 14:44 -34.02331 151.94967 34036 ft 419 kts 279°
2026-05-04 14:44 -34.01628 151.88000 34034 ft 419 kts 279°
2026-05-04 14:45 -34.00917 151.80980 34034 ft 419 kts 279°
2026-05-04 14:45 -34.00208 151.74007 34036 ft 419 kts 279°
2026-05-04 14:46 -33.99494 151.67028 34038 ft 420 kts 279°
2026-05-04 14:46 -33.98776 151.60045 34042 ft 420 kts 279°
2026-05-04 14:47 -33.98054 151.53060 34049 ft 420 kts 279°
2026-05-04 14:47 -33.97331 151.46113 34058 ft 420 kts 280°
2026-05-04 14:48 -33.96601 151.39129 34065 ft 420 kts 280°
2026-05-04 14:48 -33.95866 151.32133 34070 ft 420 kts 280°
2026-05-04 14:49 -33.95128 151.25149 34078 ft 420 kts 280°
2026-05-04 14:49 -33.94268 151.18191 34075 ft 419 kts 284°
2026-05-04 14:50 -33.92647 151.11480 34078 ft 417 kts 289°
2026-05-04 14:50 -33.90887 151.04817 34078 ft 417 kts 289°
2026-05-04 14:51 -33.89142 150.98149 34071 ft 418 kts 289°
2026-05-04 14:51 -33.87407 150.91519 34060 ft 418 kts 289°
2026-05-04 14:52 -33.85648 150.84817 34064 ft 417 kts 289°
2026-05-04 14:52 -33.83898 150.78164 34069 ft 417 kts 289°
2026-05-04 14:53 -33.82154 150.71553 34065 ft 416 kts 289°
2026-05-04 14:53 -33.80390 150.64881 34072 ft 416 kts 289°
2026-05-04 14:54 -33.78636 150.58263 34061 ft 415 kts 289°
2026-05-04 14:54 -33.76882 150.51660 34074 ft 414 kts 289°
2026-05-04 14:55 -33.75127 150.45072 34077 ft 414 kts 289°
2026-05-04 14:55 -33.73369 150.38484 34080 ft 414 kts 289°
2026-05-04 14:56 -33.71604 150.31886 34101 ft 415 kts 289°
2026-05-04 14:56 -33.69822 150.25273 34112 ft 417 kts 289°
2026-05-04 14:57 -33.68028 150.18687 34117 ft 418 kts 289°
2026-05-04 14:57 -33.66201 150.12000 34116 ft 419 kts 289°
2026-05-04 14:58 -33.64398 150.05402 34116 ft 419 kts 289°
2026-05-04 14:58 -33.62577 149.98747 34129 ft 419 kts 289°
2026-05-04 14:59 -33.60755 149.92105 34131 ft 418 kts 289°
2026-05-04 15:00 -33.58019 149.82165 34140 ft 417 kts 290°
2026-05-04 15:00 -33.56197 149.75563 34142 ft 416 kts 290°
2026-05-04 15:01 -33.53464 149.65690 34154 ft 415 kts 290°
2026-05-04 15:01 -33.51642 149.59125 34143 ft 415 kts 290°
2026-05-04 15:02 -33.49817 149.52570 34158 ft 414 kts 290°
2026-05-04 15:02 -33.47992 149.46028 34162 ft 413 kts 290°
2026-05-04 15:03 -33.46165 149.39490 34160 ft 413 kts 290°
2026-05-04 15:03 -33.44349 149.33010 34159 ft 413 kts 290°
2026-05-04 15:04 -33.42517 149.26488 34167 ft 412 kts 290°
2026-05-04 15:04 -33.40686 149.19981 34165 ft 412 kts 290°
2026-05-04 15:05 -33.38851 149.13479 34165 ft 412 kts 290°
2026-05-04 15:05 -33.37017 149.06994 34169 ft 411 kts 290°
2026-05-04 15:06 -33.35488 149.01596 34173 ft 411 kts 290°
2026-05-04 15:07 -33.32728 148.91880 34175 ft 411 kts 290°
2026-05-04 15:07 -33.30884 148.85406 34154 ft 411 kts 290°
2026-05-04 15:08 -33.29037 148.78940 34164 ft 411 kts 290°
2026-05-04 15:08 -33.27188 148.72475 34164 ft 410 kts 290°
2026-05-04 15:09 -33.25338 148.66026 34168 ft 409 kts 290°
2026-05-04 15:09 -33.23491 148.59600 34167 ft 409 kts 290°
2026-05-04 15:10 -33.20718 148.49978 34162 ft 408 kts 290°
2026-05-04 15:11 -33.17943 148.40381 34158 ft 407 kts 290°
2026-05-04 15:11 -33.16090 148.33988 34158 ft 407 kts 290°
2026-05-04 15:12 -33.14235 148.27600 34159 ft 407 kts 290°
2026-05-04 15:12 -33.12248 148.21273 34158 ft 407 kts 293°
2026-05-04 15:13 -33.10007 148.15123 34161 ft 407 kts 294°
2026-05-04 15:13 -33.07723 148.08879 34157 ft 407 kts 294°
2026-05-04 15:14 -33.05477 148.02726 34161 ft 407 kts 294°
2026-05-04 15:14 -33.03214 147.96527 34156 ft 408 kts 294°
2026-05-04 15:15 -33.00950 147.90329 34154 ft 408 kts 294°
2026-05-04 15:15 -32.98682 147.84135 34155 ft 408 kts 294°
2026-05-04 15:16 -32.95272 147.74840 34159 ft 408 kts 294°
2026-05-04 15:17 -32.91851 147.65541 34155 ft 409 kts 294°
2026-05-04 15:17 -32.88422 147.56250 34155 ft 409 kts 294°
2026-05-04 15:18 -32.86133 147.50058 34157 ft 408 kts 294°
2026-05-04 15:19 -32.82695 147.40786 34158 ft 408 kts 294°
2026-05-04 15:19 -32.79247 147.31509 34157 ft 409 kts 294°
2026-05-04 15:20 -32.76943 147.25323 34156 ft 409 kts 294°
2026-05-04 15:20 -32.74650 147.19180 34160 ft 409 kts 294°
2026-05-04 15:21 -32.72337 147.12996 34159 ft 409 kts 294°
2026-05-04 15:22 -32.68870 147.03744 34156 ft 409 kts 294°
2026-05-04 15:22 -32.65393 146.94491 34154 ft 409 kts 294°
2026-05-04 15:23 -32.63070 146.88324 34160 ft 409 kts 294°
2026-05-04 15:23 -32.60744 146.82161 34153 ft 409 kts 294°
2026-05-04 15:24 -32.56087 146.69851 34159 ft 409 kts 294°
2026-05-04 15:25 -32.53749 146.63690 34163 ft 409 kts 294°
2026-05-04 15:26 -32.50238 146.54455 34163 ft 410 kts 294°
2026-05-04 15:26 -32.46720 146.45229 34162 ft 410 kts 294°
2026-05-04 15:27 -32.43191 146.35998 34161 ft 410 kts 294°
2026-05-04 15:28 -32.39637 146.26728 34160 ft 410 kts 294°
2026-05-04 15:29 -32.36107 146.17542 34157 ft 411 kts 294°
2026-05-04 15:30 -32.27795 145.96013 34155 ft 411 kts 294°
2026-05-04 15:31 -32.24214 145.86779 34158 ft 411 kts 294°
2026-05-04 15:32 -32.18237 145.71420 34158 ft 412 kts 294°
2026-05-04 15:34 -32.12234 145.56062 34155 ft 412 kts 294°
2026-05-04 15:34 -32.08633 145.46882 34159 ft 412 kts 295°
2026-05-04 15:35 -32.05013 145.37672 34157 ft 413 kts 295°
2026-05-04 15:36 -32.01366 145.28430 34156 ft 413 kts 295°
2026-05-04 15:36 -31.98947 145.22335 34153 ft 413 kts 295°
2026-05-04 15:37 -31.96509 145.16200 34153 ft 413 kts 295°
2026-05-04 15:37 -31.94071 145.10072 34156 ft 413 kts 295°
2026-05-04 15:38 -31.91627 145.03936 34156 ft 414 kts 295°
2026-05-04 15:38 -31.89177 144.97797 34156 ft 414 kts 295°
2026-05-04 15:39 -31.86722 144.91657 34160 ft 415 kts 295°
2026-05-04 15:40 -31.83029 144.82440 34158 ft 415 kts 295°
2026-05-04 15:40 -31.80965 144.77299 34157 ft 415 kts 295°
2026-05-04 15:41 -31.78495 144.71156 34154 ft 415 kts 295°
2026-05-04 15:41 -31.76039 144.65059 34157 ft 415 kts 295°
2026-05-04 15:42 -31.73545 144.58878 34155 ft 416 kts 295°
2026-05-04 15:42 -31.71077 144.52773 34156 ft 416 kts 295°
2026-05-04 15:43 -31.68592 144.46634 34161 ft 416 kts 295°
2026-05-04 15:43 -31.66099 144.40487 34161 ft 416 kts 295°
2026-05-04 15:44 -31.63603 144.34343 34161 ft 416 kts 295°
2026-05-04 15:44 -31.61106 144.28209 34160 ft 416 kts 295°
2026-05-04 15:45 -31.58620 144.22112 34158 ft 416 kts 295°
2026-05-04 15:45 -31.56115 144.15978 34165 ft 417 kts 295°
2026-05-04 15:46 -31.53609 144.09851 34157 ft 417 kts 295°
2026-05-04 15:46 -31.51096 144.03716 34159 ft 417 kts 295°
2026-05-04 15:47 -31.48580 143.97587 34158 ft 417 kts 295°
2026-05-04 15:47 -31.46054 143.91443 34158 ft 418 kts 295°
2026-05-04 15:48 -31.43529 143.85313 34162 ft 418 kts 295°
2026-05-04 15:48 -31.39747 143.76149 34162 ft 418 kts 295°
2026-05-04 15:49 -31.37208 143.70010 34162 ft 419 kts 295°
2026-05-04 15:49 -31.34668 143.63879 34165 ft 419 kts 295°
2026-05-04 15:50 -31.32123 143.57748 34161 ft 419 kts 295°
2026-05-04 15:50 -31.29657 143.51815 34160 ft 419 kts 295°
2026-05-04 15:51 -31.27103 143.45679 34164 ft 420 kts 295°
2026-05-04 15:51 -31.24546 143.39549 34171 ft 420 kts 296°
2026-05-04 15:52 -31.21984 143.33417 34163 ft 420 kts 296°
2026-05-04 15:52 -31.19417 143.27282 34165 ft 420 kts 296°
2026-05-04 15:53 -31.16851 143.21160 34169 ft 420 kts 296°
2026-05-04 15:53 -31.14277 143.15029 34180 ft 420 kts 296°
2026-05-04 15:54 -31.11700 143.08902 34179 ft 421 kts 296°
2026-05-04 15:54 -31.09115 143.02765 34161 ft 421 kts 296°
2026-05-04 15:55 -31.06522 142.96620 34167 ft 421 kts 296°
2026-05-04 15:55 -31.03928 142.90480 34178 ft 422 kts 296°
2026-05-04 15:56 -31.01330 142.84340 34182 ft 422 kts 296°
2026-05-04 15:56 -30.98721 142.78190 34180 ft 422 kts 296°
2026-05-04 15:57 -30.96114 142.72057 34169 ft 423 kts 296°
2026-05-04 15:57 -30.93502 142.65917 34187 ft 423 kts 296°
2026-05-04 15:58 -30.90885 142.59775 34191 ft 423 kts 296°
2026-05-04 15:58 -30.88263 142.53631 34190 ft 424 kts 296°
2026-05-04 15:59 -30.85639 142.47492 34186 ft 424 kts 296°
2026-05-04 15:59 -30.83005 142.41341 34183 ft 424 kts 296°
2026-05-04 16:00 -30.80371 142.35200 34187 ft 424 kts 296°
2026-05-04 16:00 -30.77731 142.29054 34184 ft 424 kts 296°
2026-05-04 16:01 -30.75091 142.22918 34186 ft 425 kts 296°
2026-05-04 16:01 -30.72446 142.16780 34185 ft 425 kts 296°
2026-05-04 16:02 -30.69796 142.10643 34188 ft 425 kts 296°
2026-05-04 16:03 -30.65812 142.01431 34183 ft 425 kts 296°
2026-05-04 16:03 -30.63166 141.95327 34185 ft 425 kts 296°
2026-05-04 16:04 -30.60501 141.89189 34189 ft 425 kts 296°
2026-05-04 16:04 -30.56502 141.79996 34183 ft 425 kts 296°
2026-05-04 16:05 -30.53831 141.73868 34186 ft 425 kts 296°
2026-05-04 16:06 -30.49818 141.64682 34195 ft 426 kts 296°
2026-05-04 16:07 -30.44451 141.52428 34188 ft 426 kts 296°
2026-05-04 16:08 -30.39070 141.40182 34190 ft 426 kts 296°
2026-05-04 16:09 -30.32307 141.24842 34193 ft 427 kts 296°
2026-05-04 16:10 -30.26918 141.12650 34194 ft 427 kts 296°
2026-05-04 16:11 -30.21494 141.00416 34195 ft 427 kts 296°
2026-05-04 16:12 -30.13314 140.82103 34191 ft 427 kts 297°
2026-05-04 16:13 -30.07838 140.69896 34196 ft 427 kts 297°
2026-05-04 16:14 -30.02813 140.58727 34197 ft 428 kts 297°
2026-05-04 16:16 -29.95937 140.43498 34195 ft 428 kts 297°
2026-05-04 16:17 -29.89034 140.28267 34193 ft 429 kts 297°
2026-05-04 16:18 -29.83496 140.16090 34195 ft 429 kts 297°
2026-05-04 16:19 -29.76573 140.00922 34196 ft 429 kts 297°
2026-05-04 16:20 -29.69620 139.85742 34195 ft 429 kts 297°
2026-05-04 16:22 -29.62648 139.70580 34201 ft 429 kts 297°
2026-05-04 16:23 -29.54257 139.52395 34201 ft 429 kts 297°
2026-05-04 16:25 -29.45848 139.34252 34204 ft 429 kts 297°
2026-05-04 16:26 -29.35993 139.13097 34208 ft 430 kts 297°
2026-05-04 16:28 -29.28916 138.97971 34210 ft 434 kts 297°
2026-05-04 16:29 -29.18842 138.76541 34209 ft 438 kts 297°
2026-05-04 16:31 -29.11602 138.61212 34211 ft 437 kts 297°
2026-05-04 16:32 -29.02909 138.42880 34208 ft 437 kts 297°
2026-05-04 16:33 -28.97094 138.30665 34212 ft 438 kts 297°
2026-05-04 16:34 -28.92716 138.21492 34210 ft 439 kts 297°
2026-05-04 16:35 -28.83931 138.03149 34209 ft 440 kts 297°
2026-05-04 16:36 -28.79509 137.93946 34210 ft 441 kts 297°
2026-05-04 16:37 -28.75096 137.84783 34210 ft 441 kts 297°
2026-05-04 16:38 -28.69173 137.72519 34206 ft 442 kts 297°
2026-05-04 16:39 -28.61754 137.57206 34212 ft 442 kts 297°
2026-05-04 16:40 -28.55802 137.44962 34213 ft 442 kts 297°
2026-05-04 16:41 -28.48350 137.29684 34212 ft 442 kts 297°
2026-05-04 16:43 -28.40864 137.14393 34214 ft 443 kts 297°
2026-05-04 16:43 -28.36355 137.05209 34214 ft 443 kts 297°
2026-05-04 16:45 -28.27329 136.86886 34220 ft 444 kts 297°
2026-05-04 16:46 -28.19757 136.71584 34216 ft 445 kts 297°
2026-05-04 16:47 -28.13658 136.59339 34216 ft 446 kts 297°
2026-05-04 16:48 -28.07563 136.47126 34220 ft 446 kts 297°
2026-05-04 16:49 -28.01430 136.34872 34222 ft 447 kts 297°
2026-05-04 16:50 -27.95801 136.23655 34220 ft 448 kts 297°
2026-05-04 16:51 -27.91180 136.14470 34221 ft 448 kts 297°
2026-05-04 16:52 -27.84988 136.02194 34226 ft 449 kts 297°
2026-05-04 16:53 -27.80331 135.92984 34226 ft 450 kts 297°
2026-05-04 16:54 -27.74087 135.80666 34228 ft 450 kts 297°
2026-05-04 16:55 -27.64745 135.62302 34229 ft 451 kts 298°
2026-05-04 16:56 -27.56918 135.46973 34236 ft 451 kts 298°
2026-05-04 16:57 -27.52221 135.37761 34231 ft 452 kts 297°
2026-05-04 16:58 -27.45979 135.25467 34236 ft 452 kts 297°
2026-05-04 17:00 -27.36576 135.07028 34241 ft 453 kts 298°
2026-05-04 17:01 -27.28714 134.91674 34243 ft 453 kts 298°
2026-05-04 17:02 -27.22403 134.79387 34241 ft 453 kts 298°
2026-05-04 17:03 -27.17682 134.70219 34237 ft 454 kts 298°
2026-05-04 17:03 -27.12923 134.60996 34240 ft 454 kts 298°
2026-05-04 17:04 -27.06579 134.48731 34243 ft 454 kts 298°
2026-05-04 17:05 -27.00223 134.36480 34244 ft 454 kts 298°
2026-05-04 17:06 -26.95449 134.27299 34243 ft 455 kts 298°
2026-05-04 17:07 -26.91199 134.19141 34246 ft 455 kts 298°
2026-05-04 17:07 -26.87466 134.11990 34253 ft 455 kts 298°
2026-05-04 17:08 -26.82665 134.02809 34250 ft 455 kts 298°
2026-05-04 17:09 -26.79460 133.96690 34247 ft 456 kts 298°
2026-05-04 17:09 -26.76247 133.90565 34248 ft 456 kts 298°
2026-05-04 17:10 -26.68211 133.75282 34249 ft 456 kts 298°
2026-05-04 17:11 -26.64988 133.69168 34251 ft 456 kts 298°
2026-05-04 17:12 -26.60142 133.59990 34252 ft 457 kts 298°
2026-05-04 17:13 -26.52052 133.44709 34256 ft 457 kts 298°
2026-05-04 17:14 -26.45560 133.32484 34255 ft 458 kts 298°
2026-05-04 17:15 -26.40678 133.23313 34260 ft 458 kts 298°
2026-05-04 17:16 -26.34183 133.11140 34261 ft 458 kts 298°
2026-05-04 17:17 -26.27651 132.98930 34257 ft 459 kts 298°
2026-05-04 17:18 -26.21105 132.86726 34267 ft 459 kts 298°
2026-05-04 17:19 -26.14532 132.74518 34269 ft 460 kts 297°
2026-05-04 17:20 -26.07942 132.62306 34261 ft 460 kts 297°
2026-05-04 17:20 -26.02983 132.53137 34257 ft 461 kts 297°
2026-05-04 17:21 -25.96365 132.40927 34254 ft 461 kts 297°
2026-05-04 17:22 -25.93050 132.34824 34254 ft 461 kts 297°
2026-05-04 17:23 -25.86968 132.23647 34253 ft 462 kts 297°
2026-05-04 17:24 -25.81980 132.14502 34245 ft 462 kts 297°
2026-05-04 17:25 -25.75314 132.02307 34244 ft 462 kts 297°
2026-05-04 17:26 -25.68639 131.90128 34240 ft 462 kts 297°
2026-05-04 17:27 -25.60277 131.74916 34238 ft 462 kts 297°
2026-05-04 17:28 -25.53601 131.62808 34235 ft 461 kts 297°
2026-05-04 17:29 -25.43545 131.44627 34233 ft 461 kts 297°
2026-05-04 17:31 -25.35161 131.29524 34232 ft 460 kts 297°
2026-05-04 17:32 -25.26772 131.14458 34231 ft 460 kts 297°
2026-05-04 17:33 -25.20060 131.02435 34222 ft 459 kts 297°
2026-05-04 17:34 -25.14039 130.94183 34222 ft 467 kts 313°
2026-05-04 17:34 -25.11584 130.91750 34230 ft 468 kts 314°
2026-05-04 17:35 -24.99406 130.79896 34215 ft 467 kts 314°
2026-05-04 17:36 -24.94552 130.75137 34216 ft 467 kts 314°
2026-05-04 17:36 -24.89700 130.70375 34206 ft 467 kts 313°
2026-05-04 17:37 -24.84844 130.65617 34205 ft 466 kts 314°
2026-05-04 17:37 -24.79993 130.60869 34213 ft 466 kts 314°
2026-05-04 17:38 -24.75178 130.56162 34199 ft 466 kts 314°
2026-05-04 17:38 -24.70324 130.51421 34208 ft 465 kts 314°
2026-05-04 17:39 -24.63053 130.44331 34199 ft 465 kts 314°
2026-05-04 17:39 -24.58217 130.39620 34189 ft 465 kts 314°
2026-05-04 17:40 -24.53363 130.34899 34205 ft 465 kts 314°
2026-05-04 17:40 -24.48519 130.30191 34199 ft 464 kts 314°
2026-05-04 17:41 -24.43680 130.25493 34193 ft 464 kts 314°
2026-05-04 17:41 -24.38835 130.20796 34193 ft 464 kts 314°
2026-05-04 17:42 -24.33999 130.16111 34189 ft 464 kts 314°
2026-05-04 17:42 -24.29166 130.11434 34190 ft 463 kts 314°
2026-05-04 17:43 -24.24332 130.06761 34181 ft 463 kts 314°
2026-05-04 17:43 -24.19497 130.02093 34181 ft 463 kts 314°
2026-05-04 17:44 -24.14667 129.97434 34180 ft 463 kts 314°
2026-05-04 17:44 -24.09824 129.92767 34174 ft 463 kts 314°
2026-05-04 17:45 -24.04990 129.88114 34171 ft 462 kts 314°
2026-05-04 17:45 -24.00158 129.83468 34172 ft 462 kts 314°
2026-05-04 17:46 -23.95326 129.78827 34173 ft 462 kts 314°
2026-05-04 17:46 -23.90499 129.74195 34160 ft 462 kts 314°
2026-05-04 17:47 -23.85670 129.69565 34168 ft 461 kts 314°
2026-05-04 17:47 -23.80841 129.64941 34165 ft 461 kts 314°
2026-05-04 17:48 -23.75984 129.60294 34159 ft 461 kts 314°
2026-05-04 17:48 -23.71185 129.55709 34153 ft 461 kts 314°
2026-05-04 17:49 -23.66360 129.51101 34149 ft 461 kts 314°
2026-05-04 17:49 -23.61529 129.46494 34151 ft 460 kts 314°
2026-05-04 17:50 -23.56711 129.41904 34144 ft 460 kts 314°
2026-05-04 17:50 -23.51886 129.37312 34146 ft 459 kts 314°
2026-05-04 17:51 -23.47070 129.32732 34141 ft 459 kts 313°
2026-05-04 17:51 -23.42256 129.28159 34138 ft 459 kts 313°
2026-05-04 17:52 -23.37473 129.23621 34136 ft 458 kts 313°
2026-05-04 17:52 -23.32659 129.19058 34133 ft 458 kts 313°
2026-05-04 17:53 -23.27850 129.14504 34128 ft 458 kts 313°
2026-05-04 17:53 -23.23042 129.09954 34124 ft 458 kts 313°
2026-05-04 17:54 -23.18239 129.05414 34124 ft 458 kts 313°
2026-05-04 17:54 -23.13431 129.00874 34126 ft 458 kts 313°
2026-05-04 17:55 -23.08620 128.96336 34118 ft 458 kts 313°
2026-05-04 17:55 -23.03804 128.91795 34109 ft 458 kts 313°
2026-05-04 17:56 -22.98985 128.87258 34116 ft 458 kts 313°
2026-05-04 17:56 -22.94168 128.82730 34425 ft 460 kts 312°
2026-05-04 17:57 -22.91748 128.80461 34817 ft 458 kts 312°
2026-05-04 17:57 -22.89346 128.78210 35174 ft 456 kts 311°
2026-05-04 17:57 -22.86949 128.75963 35497 ft 455 kts 311°
2026-05-04 17:57 -22.84558 128.73721 35785 ft 454 kts 311°
2026-05-04 17:58 -22.82163 128.71476 36021 ft 455 kts 311°
2026-05-04 17:58 -22.79763 128.69223 36042 ft 457 kts 311°
2026-05-04 17:58 -22.75762 128.65476 36098 ft 455 kts 310°
2026-05-04 17:59 -22.70979 128.61004 36093 ft 452 kts 310°
2026-05-04 18:00 -22.63839 128.54333 36097 ft 451 kts 310°
2026-05-04 18:00 -22.59093 128.49901 36091 ft 450 kts 310°
2026-05-04 18:01 -22.54343 128.45470 36092 ft 451 kts 310°
2026-05-04 18:01 -22.49585 128.41037 36088 ft 452 kts 310°
2026-05-04 18:02 -22.42425 128.34374 36086 ft 453 kts 310°
2026-05-04 18:02 -22.37628 128.29916 36085 ft 454 kts 310°
2026-05-04 18:03 -22.32835 128.25466 36081 ft 454 kts 310°
2026-05-04 18:03 -22.28041 128.21019 36078 ft 454 kts 310°
2026-05-04 18:04 -22.23245 128.16575 36091 ft 454 kts 310°
2026-05-04 18:05 -22.16078 128.09941 36082 ft 454 kts 309°
2026-05-04 18:05 -22.11286 128.05511 36076 ft 453 kts 309°
2026-05-04 18:06 -22.04113 127.98887 36074 ft 452 kts 309°
2026-05-04 18:06 -21.99308 127.94454 36071 ft 451 kts 309°
2026-05-04 18:07 -21.94565 127.90083 36067 ft 451 kts 309°
2026-05-04 18:07 -21.89771 127.85669 36067 ft 450 kts 309°
2026-05-04 18:08 -21.85012 127.81290 36066 ft 450 kts 309°
2026-05-04 18:08 -21.80260 127.76922 36073 ft 449 kts 309°
2026-05-04 18:09 -21.70751 127.68193 36063 ft 449 kts 309°
2026-05-04 18:10 -21.66023 127.63860 36059 ft 449 kts 309°
2026-05-04 18:10 -21.61238 127.59478 36054 ft 449 kts 309°
2026-05-04 18:11 -21.56487 127.55131 36053 ft 449 kts 309°
2026-05-04 18:11 -21.51734 127.50785 36052 ft 448 kts 309°
2026-05-04 18:12 -21.46977 127.46440 36064 ft 448 kts 309°
2026-05-04 18:12 -21.42224 127.42102 36068 ft 449 kts 309°
2026-05-04 18:13 -21.37464 127.37762 36059 ft 449 kts 309°
2026-05-04 18:14 -21.30318 127.31256 36052 ft 449 kts 309°
2026-05-04 18:14 -21.25563 127.26930 36056 ft 448 kts 309°
2026-05-04 18:15 -21.16032 127.18271 36052 ft 448 kts 309°
2026-05-04 18:16 -21.11270 127.13950 36050 ft 448 kts 309°
2026-05-04 18:16 -21.06509 127.09634 36055 ft 448 kts 309°
2026-05-04 18:17 -20.99368 127.03167 36044 ft 448 kts 309°
2026-05-04 18:18 -20.92255 126.96734 36045 ft 448 kts 309°
2026-05-04 18:18 -20.87489 126.92428 36042 ft 448 kts 309°
2026-05-04 18:19 -20.80326 126.85964 36042 ft 448 kts 309°
2026-05-04 18:19 -20.75591 126.81695 36043 ft 448 kts 309°
2026-05-04 18:20 -20.70825 126.77402 36041 ft 448 kts 309°
2026-05-04 18:20 -20.66055 126.73110 36039 ft 448 kts 309°
2026-05-04 18:21 -20.61288 126.68823 36044 ft 448 kts 309°
2026-05-04 18:21 -20.56508 126.64528 36032 ft 449 kts 309°
2026-05-04 18:22 -20.51729 126.60238 36038 ft 449 kts 309°
2026-05-04 18:22 -20.46940 126.55942 36034 ft 449 kts 309°
2026-05-04 18:23 -20.42157 126.51656 36035 ft 449 kts 309°
2026-05-04 18:23 -20.37369 126.47369 36030 ft 449 kts 309°
2026-05-04 18:24 -20.32585 126.43089 36034 ft 449 kts 309°
2026-05-04 18:24 -20.27804 126.38815 36033 ft 449 kts 309°
2026-05-04 18:25 -20.23044 126.34562 36029 ft 449 kts 310°
2026-05-04 18:25 -20.18252 126.30285 36027 ft 450 kts 310°
2026-05-04 18:26 -20.13458 126.26009 36030 ft 450 kts 310°
2026-05-04 18:26 -20.08653 126.21727 36035 ft 450 kts 310°
2026-05-04 18:27 -20.03966 126.17345 36032 ft 447 kts 308°
2026-05-04 18:27 -19.99394 126.12871 36026 ft 447 kts 307°
2026-05-04 18:28 -19.94808 126.08392 36027 ft 447 kts 308°
2026-05-04 18:28 -19.90183 126.03911 36026 ft 447 kts 308°
2026-05-04 18:29 -19.85571 125.99464 36027 ft 447 kts 308°
2026-05-04 18:29 -19.80957 125.95022 36024 ft 447 kts 308°
2026-05-04 18:30 -19.74038 125.88366 36023 ft 448 kts 308°
2026-05-04 18:31 -19.69450 125.83956 36020 ft 448 kts 308°
2026-05-04 18:31 -19.64832 125.79521 36022 ft 448 kts 308°
2026-05-04 18:32 -19.60951 125.75797 36021 ft 448 kts 308°
2026-05-04 18:32 -19.56363 125.71397 36015 ft 448 kts 308°
2026-05-04 18:33 -19.51736 125.66963 36018 ft 448 kts 308°
2026-05-04 18:33 -19.47107 125.62531 36018 ft 448 kts 308°
2026-05-04 18:34 -19.42481 125.58106 36015 ft 448 kts 308°
2026-05-04 18:34 -19.37839 125.53668 36019 ft 449 kts 308°
2026-05-04 18:35 -19.33200 125.49238 36012 ft 449 kts 308°
2026-05-04 18:35 -19.28562 125.44811 36016 ft 449 kts 308°
2026-05-04 18:36 -19.23918 125.40382 36008 ft 449 kts 308°
2026-05-04 18:36 -19.19275 125.35958 36011 ft 449 kts 309°
2026-05-04 18:37 -19.14624 125.31530 36008 ft 449 kts 309°
2026-05-04 18:37 -19.09979 125.27111 36000 ft 449 kts 309°
2026-05-04 18:38 -19.05330 125.22692 36016 ft 449 kts 309°
2026-05-04 18:38 -19.00679 125.18274 36008 ft 449 kts 309°
2026-05-04 18:39 -18.96027 125.13859 36004 ft 449 kts 309°
2026-05-04 18:39 -18.91372 125.09444 36001 ft 449 kts 309°
2026-05-04 18:40 -18.86717 125.05032 36003 ft 450 kts 309°
2026-05-04 18:40 -18.82063 125.00626 36000 ft 450 kts 309°
2026-05-04 18:41 -18.77395 124.96209 35997 ft 451 kts 309°
2026-05-04 18:41 -18.72719 124.91787 35998 ft 451 kts 309°
2026-05-04 18:42 -18.68068 124.87393 35988 ft 452 kts 309°
2026-05-04 18:42 -18.63382 124.82972 35994 ft 452 kts 309°
2026-05-04 18:43 -18.58691 124.78547 35986 ft 451 kts 309°
2026-05-04 18:43 -18.53979 124.74106 35989 ft 451 kts 309°
2026-05-04 18:44 -18.49328 124.69725 35989 ft 452 kts 309°
2026-05-04 18:44 -18.44639 124.65312 35989 ft 452 kts 309°
2026-05-04 18:45 -18.39938 124.60891 35992 ft 453 kts 309°
2026-05-04 18:45 -18.35228 124.56466 35992 ft 453 kts 309°
2026-05-04 18:46 -18.30520 124.52046 35988 ft 454 kts 310°
2026-05-04 18:46 -18.25805 124.47622 35990 ft 454 kts 310°
2026-05-04 18:47 -18.21091 124.43202 35987 ft 454 kts 310°
2026-05-04 18:47 -18.16396 124.38805 35984 ft 454 kts 310°
2026-05-04 18:48 -18.11675 124.34385 35981 ft 455 kts 310°
2026-05-04 18:48 -18.06951 124.29966 35982 ft 455 kts 310°
2026-05-04 18:49 -18.02213 124.25537 35981 ft 455 kts 310°
2026-05-04 18:49 -17.97480 124.21117 35981 ft 455 kts 310°
2026-05-04 18:50 -17.92747 124.16700 35982 ft 456 kts 310°
2026-05-04 18:50 -17.87996 124.12269 35981 ft 456 kts 310°
2026-05-04 18:51 -17.83374 124.07961 35980 ft 456 kts 310°
2026-05-04 18:51 -17.78616 124.03530 35974 ft 457 kts 310°
2026-05-04 18:52 -17.73863 123.99107 35971 ft 457 kts 310°
2026-05-04 18:52 -17.69089 123.94668 35970 ft 458 kts 310°
2026-05-04 18:53 -17.64320 123.90235 35966 ft 458 kts 310°
2026-05-04 18:53 -17.59549 123.85804 35966 ft 458 kts 310°
2026-05-04 18:54 -17.54972 123.81186 35969 ft 455 kts 308°
2026-05-04 18:54 -17.50497 123.76495 35965 ft 455 kts 307°
2026-05-04 18:55 -17.46017 123.71802 35967 ft 456 kts 308°
2026-05-04 18:55 -17.39264 123.64766 35969 ft 457 kts 308°
2026-05-04 18:56 -17.34776 123.60104 35967 ft 457 kts 308°
2026-05-04 18:56 -17.30259 123.55415 35970 ft 457 kts 308°
2026-05-04 18:57 -17.25732 123.50720 35972 ft 458 kts 308°
2026-05-04 18:57 -17.21208 123.46031 35968 ft 458 kts 308°
2026-05-04 18:58 -17.16670 123.41330 35967 ft 458 kts 308°
2026-05-04 18:58 -17.12132 123.36632 35971 ft 459 kts 308°
2026-05-04 18:59 -17.07594 123.31938 35969 ft 459 kts 308°
2026-05-04 18:59 -17.03048 123.27239 35966 ft 459 kts 308°
2026-05-04 19:00 -16.98505 123.22547 35967 ft 459 kts 308°
2026-05-04 19:00 -16.93953 123.17848 35965 ft 460 kts 308°
2026-05-04 19:01 -16.89398 123.13150 35951 ft 460 kts 308°
2026-05-04 19:01 -16.84875 123.08489 35956 ft 460 kts 309°
2026-05-04 19:02 -16.80304 123.03780 35973 ft 460 kts 309°
2026-05-04 19:02 -16.75743 122.99086 35967 ft 460 kts 309°
2026-05-04 19:03 -16.71183 122.94397 35957 ft 461 kts 309°
2026-05-04 19:03 -16.66614 122.89701 35950 ft 461 kts 309°
2026-05-04 19:04 -16.62038 122.85002 35944 ft 461 kts 309°
2026-05-04 19:04 -16.57468 122.80312 35952 ft 461 kts 309°
2026-05-04 19:05 -16.52891 122.75618 35943 ft 460 kts 309°
2026-05-04 19:05 -16.48352 122.70966 35955 ft 460 kts 309°
2026-05-04 19:06 -16.43776 122.66279 35950 ft 460 kts 309°
2026-05-04 19:06 -16.39206 122.61602 35942 ft 460 kts 309°
2026-05-04 19:07 -16.35400 122.57710 35949 ft 460 kts 309°
2026-05-04 19:07 -16.30830 122.53038 35950 ft 460 kts 309°
2026-05-04 19:08 -16.26256 122.48367 35944 ft 460 kts 309°
2026-05-04 19:08 -16.21682 122.43698 35944 ft 460 kts 309°
2026-05-04 19:09 -16.17110 122.39034 35942 ft 460 kts 309°
2026-05-04 19:09 -16.12538 122.34374 35942 ft 460 kts 309°
2026-05-04 19:10 -16.08700 122.30464 35941 ft 460 kts 309°
2026-05-04 19:10 -16.03380 122.25049 35937 ft 460 kts 310°
2026-05-04 19:11 -15.98798 122.20388 35948 ft 460 kts 310°
2026-05-04 19:11 -15.94248 122.15763 35942 ft 460 kts 310°
2026-05-04 19:12 -15.87380 122.08788 35940 ft 460 kts 310°
2026-05-04 19:13 -15.82799 122.04138 35941 ft 460 kts 310°
2026-05-04 19:13 -15.78218 121.99492 35937 ft 460 kts 310°
2026-05-04 19:14 -15.73635 121.94848 35937 ft 460 kts 310°
2026-05-04 19:14 -15.69052 121.90206 35934 ft 460 kts 310°
2026-05-04 19:15 -15.64463 121.85562 35937 ft 461 kts 310°
2026-05-04 19:15 -15.59867 121.80913 35937 ft 461 kts 310°
2026-05-04 19:16 -15.55273 121.76269 35936 ft 461 kts 310°
2026-05-04 19:16 -15.50709 121.71659 35934 ft 461 kts 310°
2026-05-04 19:17 -15.46110 121.67016 35935 ft 461 kts 310°
2026-05-04 19:17 -15.41511 121.62376 35936 ft 461 kts 310°
2026-05-04 19:18 -15.36914 121.57742 35932 ft 461 kts 310°
2026-05-04 19:18 -15.32277 121.53071 35932 ft 461 kts 311°
2026-05-04 19:19 -15.27706 121.48468 35934 ft 461 kts 311°
2026-05-04 19:19 -15.23074 121.43808 35931 ft 461 kts 311°
2026-05-04 19:20 -15.18476 121.39184 35934 ft 461 kts 311°
2026-05-04 19:20 -15.13871 121.34556 35935 ft 461 kts 311°
2026-05-04 19:21 -15.09266 121.29932 35934 ft 461 kts 311°
2026-05-04 19:21 -15.04679 121.25328 35933 ft 461 kts 311°
2026-05-04 19:22 -15.00068 121.20703 35932 ft 462 kts 311°
2026-05-04 19:22 -14.95452 121.16077 35933 ft 462 kts 311°
2026-05-04 19:23 -14.90829 121.11446 35932 ft 462 kts 311°
2026-05-04 19:23 -14.86207 121.06819 35932 ft 462 kts 311°
2026-05-04 19:24 -14.81580 121.02190 35932 ft 462 kts 311°
2026-05-04 19:24 -14.76983 120.97593 35929 ft 463 kts 312°
2026-05-04 19:25 -14.72355 120.92969 35942 ft 463 kts 312°
2026-05-04 19:25 -14.67682 120.88303 35927 ft 464 kts 312°
2026-05-04 19:26 -14.63070 120.83700 35922 ft 464 kts 312°
2026-05-04 19:26 -14.58422 120.79065 35944 ft 464 kts 312°
2026-05-04 19:27 -14.53769 120.74427 35938 ft 465 kts 312°
2026-05-04 19:27 -14.49112 120.69788 35922 ft 465 kts 312°
2026-05-04 19:28 -14.44453 120.65151 35918 ft 465 kts 312°
2026-05-04 19:28 -14.39789 120.60510 35930 ft 466 kts 312°
2026-05-04 19:29 -14.35112 120.55860 35937 ft 466 kts 312°
2026-05-04 19:29 -14.30436 120.51214 35933 ft 466 kts 312°
2026-05-04 19:30 -14.25764 120.46574 35927 ft 467 kts 312°
2026-05-04 19:30 -14.21080 120.41926 35933 ft 467 kts 312°
2026-05-04 19:31 -14.16398 120.37281 35924 ft 467 kts 313°
2026-05-04 19:31 -14.11739 120.32664 35926 ft 467 kts 313°
2026-05-04 19:32 -14.07051 120.28019 35930 ft 467 kts 313°
2026-05-04 19:32 -14.02357 120.23372 35919 ft 467 kts 313°
2026-05-04 19:33 -13.97668 120.18732 35927 ft 468 kts 313°
2026-05-04 19:33 -13.92971 120.14087 35923 ft 468 kts 313°
2026-05-04 19:34 -13.88277 120.09448 35927 ft 468 kts 313°
2026-05-04 19:34 -13.83575 120.04804 35924 ft 468 kts 313°
2026-05-04 19:35 -13.78880 120.00169 35929 ft 468 kts 313°
2026-05-04 19:35 -13.74206 119.95558 35928 ft 468 kts 313°
2026-05-04 19:36 -13.69505 119.90922 35925 ft 468 kts 313°
2026-05-04 19:36 -13.64801 119.86288 35926 ft 468 kts 313°
2026-05-04 19:37 -13.60095 119.81653 35919 ft 468 kts 313°
2026-05-04 19:37 -13.55386 119.77018 35924 ft 469 kts 313°
2026-05-04 19:38 -13.50673 119.72382 35924 ft 469 kts 313°
2026-05-04 19:38 -13.45959 119.67747 35921 ft 469 kts 313°
2026-05-04 19:39 -13.41243 119.63113 35925 ft 469 kts 313°
2026-05-04 19:39 -13.36525 119.58480 35925 ft 469 kts 313°
2026-05-04 19:40 -13.31800 119.53843 35926 ft 469 kts 313°
2026-05-04 19:40 -13.27078 119.49211 35925 ft 469 kts 313°
2026-05-04 19:41 -13.22355 119.44581 35924 ft 469 kts 313°
2026-05-04 19:41 -13.17635 119.39956 35927 ft 469 kts 313°
2026-05-04 19:42 -13.12932 119.35351 35924 ft 469 kts 313°
2026-05-04 19:42 -13.08209 119.30728 35923 ft 469 kts 313°
2026-05-04 19:43 -13.03476 119.26099 35923 ft 469 kts 313°
2026-05-04 19:43 -12.99535 119.22246 35923 ft 470 kts 313°
2026-05-04 19:44 -12.94806 119.17625 35925 ft 470 kts 313°
2026-05-04 19:44 -12.90072 119.13001 35922 ft 470 kts 313°
2026-05-04 19:45 -12.85336 119.08379 35918 ft 470 kts 313°
2026-05-04 19:45 -12.80590 119.03749 35920 ft 470 kts 313°
2026-05-04 19:46 -12.75882 118.99158 35920 ft 470 kts 313°
2026-05-04 19:46 -12.71131 118.94529 35922 ft 471 kts 314°
2026-05-04 19:47 -12.66391 118.89912 35920 ft 471 kts 314°
2026-05-04 19:47 -12.61641 118.85289 35921 ft 471 kts 314°
2026-05-04 19:48 -12.56890 118.80667 35920 ft 471 kts 314°
2026-05-04 19:48 -12.52143 118.76050 35920 ft 471 kts 314°
2026-05-04 19:49 -12.47389 118.71430 35922 ft 471 kts 314°
2026-05-04 19:49 -12.42636 118.66813 35920 ft 471 kts 314°
2026-05-04 19:50 -12.37877 118.62192 35918 ft 471 kts 314°
2026-05-04 19:50 -12.33114 118.57571 35917 ft 471 kts 314°
2026-05-04 19:51 -12.28353 118.52953 35918 ft 472 kts 314°
2026-05-04 19:51 -12.23575 118.48322 35918 ft 472 kts 314°
2026-05-04 19:52 -12.18807 118.43702 35917 ft 472 kts 314°
2026-05-04 19:52 -12.14069 118.39115 35918 ft 472 kts 314°
2026-05-04 19:53 -12.09300 118.34498 35918 ft 472 kts 314°
2026-05-04 19:53 -12.04528 118.29880 35916 ft 473 kts 314°
2026-05-04 19:54 -11.99748 118.25259 35916 ft 473 kts 314°
2026-05-04 19:54 -11.94964 118.20638 35913 ft 473 kts 314°
2026-05-04 19:55 -11.90203 118.16041 35911 ft 473 kts 314°
2026-05-04 19:55 -11.85412 118.11416 35916 ft 474 kts 314°
2026-05-04 19:56 -11.80590 118.06763 35911 ft 474 kts 314°
2026-05-04 19:56 -11.75794 118.02137 35913 ft 475 kts 314°
2026-05-04 19:57 -11.71021 117.97536 35911 ft 475 kts 314°
2026-05-04 19:57 -11.66219 117.92908 35913 ft 475 kts 314°
2026-05-04 19:58 -11.61400 117.88268 35914 ft 475 kts 314°
2026-05-04 19:58 -11.56584 117.83632 35911 ft 475 kts 314°
2026-05-04 19:59 -11.51772 117.79002 35914 ft 475 kts 314°
2026-05-04 19:59 -11.46952 117.74367 35914 ft 475 kts 314°
2026-05-04 20:00 -11.42166 117.69767 35912 ft 475 kts 314°
2026-05-04 20:00 -11.37347 117.65137 35911 ft 475 kts 314°
2026-05-04 20:01 -11.32536 117.60518 35912 ft 475 kts 314°
2026-05-04 20:01 -11.27715 117.55891 35909 ft 475 kts 314°
2026-05-04 20:02 -11.22897 117.51269 35911 ft 475 kts 314°
2026-05-04 20:02 -11.18071 117.46642 35908 ft 475 kts 314°
2026-05-04 20:03 -11.13253 117.42024 35910 ft 475 kts 314°
2026-05-04 20:03 -11.08439 117.37412 35906 ft 475 kts 314°
2026-05-04 20:04 -11.03620 117.32799 35906 ft 475 kts 314°
2026-05-04 20:04 -10.98797 117.28183 35908 ft 476 kts 314°
2026-05-04 20:05 -10.93976 117.23572 35903 ft 476 kts 314°
2026-05-04 20:05 -10.89153 117.18960 35907 ft 476 kts 314°
2026-05-04 20:06 -10.84317 117.14338 35913 ft 476 kts 314°
2026-05-04 20:06 -10.79519 117.09755 35902 ft 476 kts 314°
2026-05-04 20:07 -10.74677 117.05132 35905 ft 476 kts 314°
2026-05-04 20:07 -10.69847 117.00523 35903 ft 477 kts 314°
2026-05-04 20:08 -10.65004 116.95902 35907 ft 477 kts 315°
2026-05-04 20:08 -10.60159 116.91283 35905 ft 477 kts 315°
2026-05-04 20:09 -10.55320 116.86671 35902 ft 477 kts 315°
2026-05-04 20:09 -10.50475 116.82056 35899 ft 477 kts 315°
2026-05-04 20:10 -10.45658 116.77470 35899 ft 477 kts 315°
2026-05-04 20:10 -10.40809 116.72854 35899 ft 477 kts 315°
2026-05-04 20:11 -10.35932 116.68214 35897 ft 477 kts 315°
2026-05-04 20:11 -10.31114 116.63634 35900 ft 477 kts 315°
2026-05-04 20:12 -10.26270 116.59029 35901 ft 477 kts 315°
2026-05-04 20:12 -10.21416 116.54417 35901 ft 477 kts 315°
2026-05-04 20:13 -10.16564 116.49810 35899 ft 477 kts 315°
2026-05-04 20:13 -10.11710 116.45202 35900 ft 477 kts 315°
2026-05-04 20:14 -10.06857 116.40598 35900 ft 477 kts 315°
2026-05-04 20:14 -10.02008 116.35998 35898 ft 477 kts 315°
2026-05-04 20:15 -9.97147 116.31390 35902 ft 477 kts 315°
2026-05-04 20:15 -9.92300 116.26797 35897 ft 477 kts 315°
2026-05-04 20:16 -9.87444 116.22197 35899 ft 477 kts 315°
2026-05-04 20:16 -9.82587 116.17599 35897 ft 478 kts 315°
2026-05-04 20:17 -9.77728 116.13001 35896 ft 478 kts 315°
2026-05-04 20:17 -9.72862 116.08398 35894 ft 479 kts 315°
2026-05-04 20:18 -9.67984 116.03786 35896 ft 479 kts 315°
2026-05-04 20:18 -9.63095 115.99164 35892 ft 480 kts 315°
2026-05-04 20:19 -9.58243 115.94579 35892 ft 479 kts 315°
2026-05-04 20:19 -9.54159 115.90722 35891 ft 479 kts 315°
2026-05-04 20:20 -9.48488 115.85368 35893 ft 479 kts 315°
2026-05-04 20:20 -9.43614 115.80769 35894 ft 479 kts 315°
2026-05-04 20:21 -9.39522 115.76909 35893 ft 479 kts 315°
2026-05-04 20:21 -9.32196 115.70003 35893 ft 480 kts 315°
2026-05-04 20:22 -9.27305 115.65393 35893 ft 480 kts 315°
2026-05-04 20:22 -9.22412 115.60784 35893 ft 480 kts 315°
2026-05-04 20:23 -9.17517 115.56174 35893 ft 481 kts 315°
2026-05-04 20:23 -9.12611 115.51555 35889 ft 482 kts 315°
2026-05-04 20:24 -9.07698 115.46933 35887 ft 482 kts 315°
2026-05-04 20:24 -9.02779 115.42306 35886 ft 483 kts 315°
2026-05-04 20:25 -8.97856 115.37677 35884 ft 483 kts 315°
2026-05-04 20:25 -8.92960 115.33075 35884 ft 483 kts 315°
2026-05-04 20:26 -8.88032 115.28445 35884 ft 483 kts 315°
2026-05-04 20:26 -8.83109 115.23820 35884 ft 483 kts 315°
2026-05-04 20:27 -8.78174 115.19187 35887 ft 483 kts 315°
2026-05-04 20:27 -8.73092 115.14729 35887 ft 485 kts 322°
2026-05-04 20:28 -8.67623 115.10738 35886 ft 485 kts 323°
2026-05-04 20:28 -8.62128 115.06784 35888 ft 485 kts 323°
2026-05-04 20:29 -8.56641 115.02802 35893 ft 485 kts 323°
2026-05-04 20:29 -8.51164 114.98803 35899 ft 485 kts 322°
2026-05-04 20:30 -8.45722 114.94822 35906 ft 485 kts 322°
2026-05-04 20:30 -8.40253 114.90824 35903 ft 485 kts 323°
2026-05-04 20:31 -8.34783 114.86829 35898 ft 485 kts 323°
2026-05-04 20:31 -8.29318 114.82840 35904 ft 484 kts 323°
2026-05-04 20:32 -8.23851 114.78850 35895 ft 484 kts 323°
2026-05-04 20:32 -8.18387 114.74863 35884 ft 484 kts 323°
2026-05-04 20:33 -8.12928 114.70883 35890 ft 484 kts 323°
2026-05-04 20:33 -8.07460 114.66897 35887 ft 484 kts 323°
2026-05-04 20:34 -8.01997 114.62915 35882 ft 484 kts 323°
2026-05-04 20:34 -7.96535 114.58935 35882 ft 484 kts 323°
2026-05-04 20:35 -7.91099 114.54976 35883 ft 485 kts 323°
2026-05-04 20:35 -7.85630 114.50994 35880 ft 485 kts 323°
2026-05-04 20:36 -7.80155 114.47009 35879 ft 485 kts 323°
2026-05-04 20:36 -7.74679 114.43025 35879 ft 485 kts 323°
2026-05-04 20:37 -7.69201 114.39041 35876 ft 485 kts 323°
2026-05-04 20:37 -7.63730 114.35063 35870 ft 485 kts 323°
2026-05-04 20:38 -7.58291 114.31110 35870 ft 485 kts 323°
2026-05-04 20:38 -7.52815 114.27130 35867 ft 485 kts 323°
2026-05-04 20:39 -7.47335 114.23149 35864 ft 485 kts 323°
2026-05-04 20:39 -7.41867 114.19178 35860 ft 485 kts 323°
2026-05-04 20:40 -7.36390 114.15202 35861 ft 485 kts 324°
2026-05-04 20:40 -7.30881 114.11204 35858 ft 485 kts 324°
2026-05-04 20:41 -7.25436 114.07254 35858 ft 485 kts 324°
2026-05-04 20:41 -7.19961 114.03282 35857 ft 485 kts 324°
2026-05-04 20:42 -7.14490 113.99314 35858 ft 485 kts 324°
2026-05-04 20:42 -7.09009 113.95341 35858 ft 485 kts 324°
2026-05-04 20:43 -7.03537 113.91375 35860 ft 484 kts 324°
2026-05-04 20:43 -6.98067 113.87413 35862 ft 484 kts 324°
2026-05-04 20:44 -6.92595 113.83453 35862 ft 484 kts 324°
2026-05-04 20:44 -6.87132 113.79500 35861 ft 483 kts 324°
2026-05-04 20:45 -6.81672 113.75549 35867 ft 483 kts 325°
2026-05-04 20:45 -6.76208 113.71597 35862 ft 483 kts 325°
2026-05-04 20:46 -6.70754 113.67652 35865 ft 482 kts 325°
2026-05-04 20:46 -6.65300 113.63708 35862 ft 482 kts 325°
2026-05-04 20:47 -6.59852 113.59771 35858 ft 482 kts 325°
2026-05-04 20:47 -6.54409 113.55837 35861 ft 482 kts 325°
2026-05-04 20:48 -6.48951 113.51894 35864 ft 482 kts 325°
2026-05-04 20:48 -6.43531 113.47979 35856 ft 482 kts 325°
2026-05-04 20:49 -6.38082 113.44044 35860 ft 482 kts 325°
2026-05-04 20:49 -6.32617 113.40098 35861 ft 483 kts 325°
2026-05-04 20:50 -6.27195 113.36105 35857 ft 484 kts 321°
2026-05-04 20:50 -6.22404 113.31354 35856 ft 486 kts 310°
2026-05-04 20:51 -6.18283 113.26006 35868 ft 487 kts 308°
2026-05-04 20:51 -6.14179 113.20571 35864 ft 487 kts 308°
2026-05-04 20:52 -6.10053 113.15152 35862 ft 488 kts 309°
2026-05-04 20:52 -6.05910 113.09753 35863 ft 488 kts 309°
2026-05-04 20:53 -6.01727 113.04316 35863 ft 488 kts 309°
2026-05-04 20:53 -5.97575 112.98921 35865 ft 488 kts 309°
2026-05-04 20:54 -5.93421 112.93522 35867 ft 488 kts 309°
2026-05-04 20:54 -5.89968 112.89034 35866 ft 488 kts 309°
2026-05-04 20:55 -5.85810 112.83633 35867 ft 488 kts 309°
2026-05-04 20:55 -5.81656 112.78236 35865 ft 488 kts 309°
2026-05-04 20:56 -5.77500 112.72839 35868 ft 488 kts 309°
2026-05-04 20:56 -5.73341 112.67440 35857 ft 489 kts 309°
2026-05-04 20:57 -5.69181 112.62041 35866 ft 488 kts 309°
2026-05-04 20:57 -5.65019 112.56641 35863 ft 489 kts 309°
2026-05-04 20:58 -5.60857 112.51242 35865 ft 489 kts 309°
2026-05-04 20:58 -5.56719 112.45875 35863 ft 489 kts 309°
2026-05-04 20:59 -5.52551 112.40471 35864 ft 489 kts 309°
2026-05-04 20:59 -5.48384 112.35070 35862 ft 489 kts 309°
2026-05-04 21:00 -5.44211 112.29663 35863 ft 489 kts 309°
2026-05-04 21:00 -5.40044 112.24264 35863 ft 489 kts 309°
2026-05-04 21:01 -5.35873 112.18861 35859 ft 489 kts 309°
2026-05-04 21:01 -5.31700 112.13458 35858 ft 489 kts 309°
2026-05-04 21:02 -5.27555 112.08092 35859 ft 489 kts 309°
2026-05-04 21:02 -5.23382 112.02692 35856 ft 489 kts 309°
2026-05-04 21:03 -5.19213 111.97297 35857 ft 489 kts 309°
2026-05-04 21:03 -5.15036 111.91893 35858 ft 489 kts 309°
2026-05-04 21:04 -5.10863 111.86497 35857 ft 489 kts 309°
2026-05-04 21:04 -5.06688 111.81098 35855 ft 490 kts 309°
2026-05-04 21:05 -5.02511 111.75698 35860 ft 490 kts 309°
2026-05-04 21:05 -4.98328 111.70293 35862 ft 490 kts 309°
2026-05-04 21:06 -4.94151 111.64895 35862 ft 490 kts 309°
2026-05-04 21:06 -4.89990 111.59521 35854 ft 490 kts 309°
2026-05-04 21:07 -4.85804 111.54113 35860 ft 490 kts 309°
2026-05-04 21:07 -4.81594 111.48677 35857 ft 491 kts 309°
2026-05-04 21:08 -4.77434 111.43307 35857 ft 491 kts 309°
2026-05-04 21:08 -4.73244 111.37899 35856 ft 491 kts 309°
2026-05-04 21:09 -4.69026 111.32455 35858 ft 491 kts 309°
2026-05-04 21:09 -4.64861 111.27080 35857 ft 491 kts 309°
2026-05-04 21:10 -4.60669 111.21670 35858 ft 491 kts 309°
2026-05-04 21:10 -4.56488 111.16247 35859 ft 491 kts 309°
2026-05-04 21:11 -4.52321 111.10830 35855 ft 491 kts 309°
2026-05-04 21:11 -4.48150 111.05411 35857 ft 490 kts 309°
2026-05-04 21:12 -4.43983 111.00001 35858 ft 490 kts 309°
2026-05-04 21:12 -4.39811 110.94587 35853 ft 490 kts 309°
2026-05-04 21:13 -4.35663 110.89203 35854 ft 490 kts 309°
2026-05-04 21:13 -4.31460 110.83752 35856 ft 490 kts 309°
2026-05-04 21:14 -4.27293 110.78346 35856 ft 490 kts 309°
2026-05-04 21:14 -4.23152 110.72974 35855 ft 490 kts 309°
2026-05-04 21:15 -4.18982 110.67568 35855 ft 490 kts 309°
2026-05-04 21:15 -4.14811 110.62161 35855 ft 490 kts 309°
2026-05-04 21:16 -4.10645 110.56761 35855 ft 490 kts 309°
2026-05-04 21:16 -4.06472 110.51353 35855 ft 489 kts 309°
2026-05-04 21:17 -4.02313 110.45963 35856 ft 489 kts 309°
2026-05-04 21:17 -3.98146 110.40564 35855 ft 489 kts 309°
2026-05-04 21:18 -3.93920 110.35225 35852 ft 489 kts 311°
2026-05-04 21:18 -3.89466 110.30076 35857 ft 488 kts 312°
2026-05-04 21:19 -3.84987 110.24961 35854 ft 489 kts 312°
2026-05-04 21:19 -3.80537 110.19815 35853 ft 489 kts 311°
2026-05-04 21:20 -3.76099 110.14644 35853 ft 489 kts 311°
2026-05-04 21:20 -3.71660 110.09463 35849 ft 489 kts 311°
2026-05-04 21:21 -3.67224 110.04290 35850 ft 489 kts 311°
2026-05-04 21:21 -3.62782 109.99114 35852 ft 489 kts 311°
2026-05-04 21:22 -3.58346 109.93947 35852 ft 489 kts 311°
2026-05-04 21:22 -3.53907 109.88776 35852 ft 489 kts 311°
2026-05-04 21:23 -3.49472 109.83611 35852 ft 489 kts 311°
2026-05-04 21:23 -3.45036 109.78445 35853 ft 489 kts 311°
2026-05-04 21:24 -3.40626 109.73311 35853 ft 489 kts 311°
2026-05-04 21:24 -3.36164 109.68116 35853 ft 489 kts 311°
2026-05-04 21:25 -3.31725 109.62950 35851 ft 489 kts 311°
2026-05-04 21:25 -3.27320 109.57824 35855 ft 489 kts 311°
2026-05-04 21:26 -3.22885 109.52662 35853 ft 489 kts 311°
2026-05-04 21:26 -3.18447 109.47499 35851 ft 489 kts 311°
2026-05-04 21:27 -3.14007 109.42335 35854 ft 489 kts 311°
2026-05-04 21:27 -3.09562 109.37164 35855 ft 490 kts 311°
2026-05-04 21:28 -3.05116 109.31994 35855 ft 490 kts 311°
2026-05-04 21:28 -3.00672 109.26825 35856 ft 490 kts 311°
2026-05-04 21:29 -2.96216 109.21644 35855 ft 491 kts 311°
2026-05-04 21:29 -2.91790 109.16497 35855 ft 491 kts 311°
2026-05-04 21:30 -2.87302 109.11286 35855 ft 491 kts 311°
2026-05-04 21:30 -2.82831 109.06121 35854 ft 491 kts 311°
2026-05-04 21:31 -2.76117 108.98368 35856 ft 491 kts 311°
2026-05-04 21:32 -2.72401 108.94074 35851 ft 491 kts 311°
2026-05-04 21:32 -2.67928 108.88904 35852 ft 491 kts 311°
2026-05-04 21:33 -2.63463 108.83745 35852 ft 491 kts 312°
2026-05-04 21:33 -2.58989 108.78574 35854 ft 491 kts 311°
2026-05-04 21:34 -2.54523 108.73414 35852 ft 491 kts 311°
2026-05-04 21:34 -2.50047 108.68243 35853 ft 491 kts 311°
2026-05-04 21:35 -2.45583 108.63081 35854 ft 491 kts 311°
2026-05-04 21:35 -2.41122 108.57909 35860 ft 491 kts 311°
2026-05-04 21:36 -2.36663 108.52737 35855 ft 491 kts 311°
2026-05-04 21:36 -2.32195 108.47556 35854 ft 491 kts 311°
2026-05-04 21:37 -2.27726 108.42376 35855 ft 491 kts 311°
2026-05-04 21:37 -2.23282 108.37226 35857 ft 492 kts 311°
2026-05-04 21:38 -2.18811 108.32044 35854 ft 492 kts 311°
2026-05-04 21:38 -2.14332 108.26853 35855 ft 492 kts 311°
2026-05-04 21:39 -2.09854 108.21663 35856 ft 493 kts 311°
2026-05-04 21:39 -2.05371 108.16469 35860 ft 493 kts 311°
2026-05-04 21:40 -2.00889 108.11272 35856 ft 494 kts 310°
2026-05-04 21:40 -1.96404 108.06066 35857 ft 494 kts 310°
2026-05-04 21:41 -1.91920 108.00859 35859 ft 494 kts 310°
2026-05-04 21:41 -1.87432 107.95650 35857 ft 494 kts 310°
2026-05-04 21:42 -1.82947 107.90444 35858 ft 494 kts 310°
2026-05-04 21:42 -1.78460 107.85237 35857 ft 494 kts 310°
2026-05-04 21:43 -1.73976 107.80033 35861 ft 494 kts 310°
2026-05-04 21:43 -1.69496 107.74835 35856 ft 494 kts 311°
2026-05-04 21:44 -1.65009 107.69629 35856 ft 493 kts 311°
2026-05-04 21:44 -1.60552 107.64457 35857 ft 493 kts 311°
2026-05-04 21:45 -1.56066 107.59253 35860 ft 493 kts 311°
2026-05-04 21:45 -1.51584 107.54053 35862 ft 493 kts 311°
2026-05-04 21:46 -1.47107 107.48859 35859 ft 493 kts 311°
2026-05-04 21:46 -1.42615 107.43648 35861 ft 493 kts 310°
2026-05-04 21:47 -1.38138 107.38454 35858 ft 493 kts 310°
2026-05-04 21:47 -1.33629 107.33282 35860 ft 493 kts 311°
2026-05-04 21:48 -1.29064 107.28160 35859 ft 493 kts 311°
2026-05-04 21:48 -1.24526 107.23074 35860 ft 493 kts 311°
2026-05-04 21:49 -1.19968 107.17947 35862 ft 494 kts 311°
2026-05-04 21:49 -1.15410 107.12812 35864 ft 494 kts 311°
2026-05-04 21:50 -1.10853 107.07676 35863 ft 494 kts 311°
2026-05-04 21:50 -1.06293 107.02540 35862 ft 494 kts 311°
2026-05-04 21:51 -1.01789 106.97466 35863 ft 493 kts 311°
2026-05-04 21:51 -0.97233 106.92334 35862 ft 493 kts 311°
2026-05-04 21:52 -0.92674 106.87200 35862 ft 493 kts 311°
2026-05-04 21:52 -0.88123 106.82074 35864 ft 493 kts 311°
2026-05-04 21:53 -0.83577 106.76954 35863 ft 493 kts 311°
2026-05-04 21:53 -0.79058 106.71864 35864 ft 493 kts 311°
2026-05-04 21:54 -0.74508 106.66740 35863 ft 492 kts 311°
2026-05-04 21:54 -0.69961 106.61619 35863 ft 492 kts 311°
2026-05-04 21:55 -0.65410 106.56493 35862 ft 492 kts 311°
2026-05-04 21:55 -0.60799 106.51433 35873 ft 492 kts 316°
2026-05-04 21:56 -0.55717 106.46858 35866 ft 492 kts 319°
2026-05-04 21:56 -0.50554 106.42349 35863 ft 492 kts 319°
2026-05-04 21:57 -0.45449 106.37859 35861 ft 492 kts 319°
2026-05-04 21:57 -0.40325 106.33316 35860 ft 493 kts 318°
2026-05-04 21:58 -0.35203 106.28762 35861 ft 493 kts 318°
2026-05-04 21:58 -0.30075 106.24204 35862 ft 493 kts 318°
2026-05-04 21:59 -0.24947 106.19649 35862 ft 493 kts 318°
2026-05-04 21:59 -0.19823 106.15097 35861 ft 493 kts 318°
2026-05-04 22:00 -0.14691 106.10539 35860 ft 493 kts 318°
2026-05-04 22:00 -0.09593 106.06011 35860 ft 493 kts 318°
2026-05-04 22:01 -0.04463 106.01454 35861 ft 493 kts 318°
2026-05-04 22:01 0.00670 105.96895 35856 ft 493 kts 318°
2026-05-04 22:02 0.05799 105.92339 35860 ft 493 kts 318°
2026-05-04 22:02 0.10935 105.87777 35859 ft 493 kts 318°
2026-05-04 22:03 0.16027 105.83254 35862 ft 493 kts 318°
2026-05-04 22:03 0.21158 105.78696 35859 ft 493 kts 318°
2026-05-04 22:04 0.26282 105.74145 35859 ft 493 kts 318°
2026-05-04 22:04 0.31397 105.69601 35862 ft 493 kts 318°
2026-05-04 22:04 0.33982 105.67305 35435 ft 500 kts 318°
2026-05-04 22:05 0.36603 105.64976 34825 ft 502 kts 318°
2026-05-04 22:05 0.39209 105.62661 34279 ft 498 kts 318°
2026-05-04 22:05 0.41792 105.60367 33757 ft 495 kts 318°
2026-05-04 22:05 0.44358 105.58088 33164 ft 492 kts 318°
2026-05-04 22:06 0.46905 105.55825 32636 ft 488 kts 318°
2026-05-04 22:06 0.49430 105.53581 32108 ft 484 kts 318°
2026-05-04 22:06 0.51935 105.51355 31592 ft 480 kts 319°
2026-05-04 22:06 0.54389 105.49175 31097 ft 477 kts 319°
2026-05-04 22:07 0.56860 105.46979 30577 ft 474 kts 319°
2026-05-04 22:07 0.59319 105.44794 30081 ft 471 kts 319°
2026-05-04 22:07 0.61762 105.42623 29498 ft 468 kts 319°
2026-05-04 22:07 0.64223 105.40510 28944 ft 463 kts 324°
2026-05-04 22:08 0.66917 105.38776 28423 ft 457 kts 331°
2026-05-04 22:08 0.69692 105.37254 27939 ft 453 kts 333°
2026-05-04 22:08 0.72473 105.35792 27425 ft 449 kts 333°
2026-05-04 22:08 0.75230 105.34335 26931 ft 446 kts 333°
2026-05-04 22:09 0.77950 105.32868 26429 ft 443 kts 332°
2026-05-04 22:09 0.80639 105.31389 25948 ft 440 kts 332°
2026-05-04 22:09 0.83307 105.29902 25449 ft 438 kts 332°
2026-05-04 22:09 0.85959 105.28414 24965 ft 436 kts 332°
2026-05-04 22:10 0.88597 105.26930 24461 ft 434 kts 332°
2026-05-04 22:10 0.91222 105.25452 23984 ft 432 kts 332°
2026-05-04 22:10 0.93838 105.23981 23505 ft 431 kts 332°
2026-05-04 22:10 0.96414 105.22533 22930 ft 429 kts 332°
2026-05-04 22:11 0.99010 105.21075 22443 ft 426 kts 332°
2026-05-04 22:11 1.01586 105.19627 21933 ft 423 kts 332°
2026-05-04 22:11 1.04140 105.18193 21448 ft 420 kts 332°
2026-05-04 22:11 1.06677 105.16768 20973 ft 417 kts 332°
2026-05-04 22:12 1.09197 105.15352 20506 ft 414 kts 332°
2026-05-04 22:12 1.11696 105.13949 20043 ft 411 kts 332°
2026-05-04 22:12 1.14151 105.12516 19560 ft 405 kts 326°
2026-05-04 22:12 1.16135 105.10536 19101 ft 404 kts 304°
2026-05-04 22:13 1.17358 105.08024 18655 ft 403 kts 288°
2026-05-04 22:13 1.17848 105.05275 18179 ft 400 kts 271°
2026-05-04 22:13 1.17807 105.02506 17687 ft 397 kts 268°
2026-05-04 22:13 1.17702 104.99758 17204 ft 395 kts 268°
2026-05-04 22:14 1.17597 104.97030 16853 ft 389 kts 268°
2026-05-04 22:14 1.17511 104.94383 16679 ft 369 kts 268°
2026-05-04 22:14 1.17444 104.91912 16503 ft 340 kts 268°
2026-05-04 22:14 1.17408 104.90390 16408 ft 322 kts 269°
2026-05-04 22:15 1.17345 104.87549 16240 ft 289 kts 269°
2026-05-04 22:15 1.17317 104.86241 16192 ft 281 kts 269°
2026-05-04 22:15 1.17275 104.84284 16091 ft 284 kts 269°
2026-05-04 22:15 1.17232 104.82277 16000 ft 294 kts 269°
2026-05-04 22:16 1.17188 104.80217 15852 ft 299 kts 269°
2026-05-04 22:16 1.17138 104.78133 15587 ft 299 kts 268°
2026-05-04 22:16 1.17085 104.76064 15342 ft 297 kts 268°
2026-05-04 22:16 1.17032 104.74003 15093 ft 295 kts 268°
2026-05-04 22:17 1.16980 104.71965 14841 ft 291 kts 268°
2026-05-04 22:17 1.16929 104.69954 14590 ft 287 kts 268°
2026-05-04 22:17 1.16879 104.67966 14357 ft 284 kts 268°
2026-05-04 22:17 1.16829 104.66002 14122 ft 282 kts 268°
2026-05-04 22:18 1.16780 104.64052 13888 ft 279 kts 268°
2026-05-04 22:18 1.16731 104.62117 13645 ft 277 kts 268°
2026-05-04 22:18 1.16682 104.60192 13397 ft 277 kts 268°
2026-05-04 22:18 1.16633 104.58258 13150 ft 279 kts 268°
2026-05-04 22:19 1.16584 104.56311 12915 ft 281 kts 268°
2026-05-04 22:19 1.16535 104.54356 12668 ft 281 kts 268°
2026-05-04 22:19 1.16486 104.52412 12424 ft 280 kts 268°
2026-05-04 22:19 1.16436 104.50467 12183 ft 279 kts 268°
2026-05-04 22:20 1.16387 104.48530 11954 ft 278 kts 268°
2026-05-04 22:20 1.16339 104.46623 11737 ft 276 kts 268°
2026-05-04 22:20 1.16291 104.44721 11567 ft 272 kts 268°
2026-05-04 22:20 1.16243 104.42813 11347 ft 270 kts 268°
2026-05-04 22:21 1.16196 104.40967 11138 ft 268 kts 268°
2026-05-04 22:21 1.16131 104.39080 10903 ft 267 kts 266°
2026-05-04 22:21 1.15987 104.37239 10688 ft 265 kts 264°
2026-05-04 22:21 1.15822 104.35406 10464 ft 264 kts 264°
2026-05-04 22:22 1.15659 104.33581 10244 ft 263 kts 264°
2026-05-04 22:22 1.15499 104.31760 10025 ft 262 kts 265°
2026-05-04 22:22 1.15343 104.29945 9801 ft 262 kts 265°
2026-05-04 22:22 1.15190 104.28141 9565 ft 261 kts 265°
2026-05-04 22:23 1.15037 104.26335 9329 ft 260 kts 265°
2026-05-04 22:23 1.14887 104.24542 9102 ft 258 kts 265°
2026-05-04 22:23 1.14737 104.22755 8883 ft 257 kts 265°
2026-05-04 22:23 1.14591 104.20984 8666 ft 255 kts 265°
2026-05-04 22:24 1.14463 104.19223 8449 ft 253 kts 265°
2026-05-04 22:24 1.14338 104.17472 8229 ft 252 kts 266°
2026-05-04 22:24 1.14215 104.15734 8029 ft 250 kts 266°
2026-05-04 22:24 1.14092 104.14003 7812 ft 249 kts 266°
2026-05-04 22:25 1.13970 104.12300 7608 ft 248 kts 266°
2026-05-04 22:25 1.13847 104.10586 7396 ft 247 kts 266°
2026-05-04 22:25 1.13725 104.08881 7194 ft 246 kts 266°
2026-05-04 22:25 1.13603 104.07179 6989 ft 245 kts 266°
2026-05-04 22:26 1.13482 104.05484 6792 ft 243 kts 266°
2026-05-04 22:26 1.13362 104.03814 6585 ft 239 kts 266°
2026-05-04 22:26 1.13244 104.02175 6389 ft 233 kts 266°
2026-05-04 22:26 1.13135 104.00587 6202 ft 226 kts 268°
2026-05-04 22:27 1.13112 103.99035 5983 ft 221 kts 270°
2026-05-04 22:27 1.13111 103.97521 5799 ft 215 kts 270°
2026-05-04 22:27 1.13114 103.96048 5644 ft 210 kts 270°
2026-05-04 22:27 1.13274 103.94615 5429 ft 209 kts 286°
2026-05-04 22:28 1.13737 103.93239 5263 ft 209 kts 290°
2026-05-04 22:28 1.14270 103.91902 5107 ft 206 kts 301°
2026-05-04 22:28 1.15297 103.90944 4745 ft 204 kts 334°
2026-05-04 22:28 1.16656 103.90545 4317 ft 206 kts 359°
2026-05-04 22:29 1.18055 103.90822 3901 ft 206 kts 15°
2026-05-04 22:29 1.19420 103.91243 3556 ft 205 kts 19°
2026-05-04 22:29 1.20748 103.91750 3199 ft 202 kts 21°
2026-05-04 22:29 1.22042 103.92291 2717 ft 200 kts 22°
2026-05-04 22:30 1.23292 103.92822 2429 ft 191 kts 22°
2026-05-04 22:30 1.24551 103.93358 2215 ft 199 kts 22°
2026-05-04 22:30 1.25778 103.93878 1938 ft 189 kts 23°
2026-05-04 22:30 1.26946 103.94374 1679 ft 176 kts 23°
2026-05-04 22:31 1.28015 103.94828 1449 ft 158 kts 23°
2026-05-04 22:31 1.28994 103.95243 1270 ft 153 kts 23°
2026-05-04 22:31 1.29980 103.95662 1051 ft 154 kts 23°
2026-05-04 22:31 1.30955 103.96076 862 ft 151 kts 23°
2026-05-04 22:32 1.31916 103.96484 676 ft 149 kts 22°
2026-05-04 22:32 1.32870 103.96899 506 ft 149 kts 24°
2026-05-04 22:32 1.33826 103.97309 304 ft 150 kts 22°
2026-05-04 22:32 1.34786 103.97710 94 ft 148 kts 22°
2026-05-04 22:33 1.35692 103.98087 29 ft 131 kts 22°
2026-05-04 22:33 1.36398 103.98385 29 ft 86 kts 23°
2026-05-04 22:33 1.36806 103.98558 29 ft 44 kts 23°
2026-05-04 22:33 1.37012 103.98685 29 ft 31 kts 45°
2026-05-04 22:34 1.37085 103.98770 29 ft 1 kts 53°
2026-05-04 22:34 1.37106 103.98802 29 ft 7 kts 60°
2026-05-04 22:34 1.37114 103.98859 29 ft 10 kts 101°
2026-05-04 22:34 1.37070 103.98931 29 ft 14 kts 146°
2026-05-04 22:35 1.36965 103.98917 29 ft 18 kts 204°
2026-05-04 22:35 1.36833 103.98861 29 ft 24 kts 202°
2026-05-04 22:35 1.36679 103.98797 29 ft 24 kts 202°
2026-05-04 22:35 1.36525 103.98731 29 ft 24 kts 203°
2026-05-04 22:36 1.36371 103.98665 29 ft 24 kts 203°
2026-05-04 22:36 1.36217 103.98600 29 ft 24 kts 203°
2026-05-04 22:36 1.36063 103.98535 29 ft 24 kts 203°
2026-05-04 22:36 1.35910 103.98469 35 ft 24 kts 203°
2026-05-04 22:37 1.35756 103.98405 29 ft 24 kts 202°
2026-05-04 22:37 1.35602 103.98342 29 ft 24 kts 203°
2026-05-04 22:37 1.35460 103.98282 29 ft 20 kts 202°
2026-05-04 22:37 1.35368 103.98289 29 ft 10 kts 148°
2026-05-04 22:38 1.35324 103.98339 29 ft 9 kts 118°
2026-05-04 22:38 1.35302 103.98387 29 ft 5 kts 113°
2026-05-04 22:38 1.35294 103.98404 29 ft 3 kts 113°
2026-05-04 22:38 1.35291 103.98412 29 ft 0 kts 113°